Wetterdaten: Donnerstag, 10.11.2016
Datum Zeit Temp. A. Feuchte A. Luftdruck Regen Wind Richtung Richtung Sonnenschein ET UV Solar Taupunkt Windchill Windben Empfang
10.11.2016 00:00 0,9 C 96 % 1006,4 hPa 0,0 l/m 0,1 km/h (0 Bft) O-NO 74 0 min 0,000 mm 0,0 UV-I 0 W/m 0,3 C 0,9 C 1,6 km/h (1 Bft) 97,87 %
10.11.2016 00:02 0,9 C 96 % 1006,4 hPa 0,0 l/m 0,6 km/h (0 Bft) O-NO 74 0 min 0,000 mm 0,0 UV-I 0 W/m 0,3 C 0,9 C 1,6 km/h (1 Bft) 97,83 %
10.11.2016 00:04 1,0 C 96 % 1006,5 hPa 0,0 l/m 1,7 km/h (1 Bft) NO 38 0 min 0,000 mm 0,0 UV-I 0 W/m 0,4 C 1,0 C 3,2 km/h (1 Bft) 95,74 %
10.11.2016 00:06 1,0 C 96 % 1006,5 hPa 0,0 l/m 2,4 km/h (1 Bft) NO 38 0 min 0,000 mm 0,0 UV-I 0 W/m 0,4 C 1,0 C 3,2 km/h (1 Bft) 100,00 %
10.11.2016 00:08 1,0 C 96 % 1006,5 hPa 0,0 l/m 0,6 km/h (0 Bft) NO 38 0 min 0,000 mm 0,0 UV-I 0 W/m 0,4 C 1,0 C 1,6 km/h (1 Bft) 100,00 %
10.11.2016 00:10 0,9 C 96 % 1006,4 hPa 0,0 l/m 0,4 km/h (0 Bft) NO 38 0 min 0,000 mm 0,0 UV-I 0 W/m 0,3 C 0,9 C 1,6 km/h (1 Bft) 100,00 %
10.11.2016 00:12 0,9 C 96 % 1006,4 hPa 0,0 l/m 0,0 km/h (0 Bft) NO 38 0 min 0,000 mm 0,0 UV-I 0 W/m 0,3 C 0,9 C 0,0 km/h (0 Bft) 100,00 %
10.11.2016 00:14 0,9 C 96 % 1006,5 hPa 0,0 l/m 0,0 km/h (0 Bft) NO 38 0 min 0,000 mm 0,0 UV-I 0 W/m 0,3 C 0,9 C 0,0 km/h (0 Bft) 98,36 %
10.11.2016 00:16 0,9 C 96 % 1006,5 hPa 0,0 l/m 0,0 km/h (0 Bft) NO 38 0 min 0,000 mm 0,0 UV-I 0 W/m 0,3 C 0,9 C 0,0 km/h (0 Bft) 100,00 %
10.11.2016 00:18 0,9 C 96 % 1006,5 hPa 0,0 l/m 0,4 km/h (0 Bft) NO 38 0 min 0,000 mm 0,0 UV-I 0 W/m 0,3 C 0,9 C 1,6 km/h (1 Bft) 100,00 %
10.11.2016 00:20 1,0 C 96 % 1006,5 hPa 0,0 l/m 0,2 km/h (0 Bft) NO 38 0 min 0,000 mm 0,0 UV-I 0 W/m 0,4 C 1,0 C 1,6 km/h (1 Bft) 96,00 %
10.11.2016 00:22 1,0 C 96 % 1006,5 hPa 0,0 l/m 0,0 km/h (0 Bft) NO 38 0 min 0,000 mm 0,0 UV-I 0 W/m 0,4 C 1,0 C 1,6 km/h (1 Bft) 100,00 %
10.11.2016 00:24 1,0 C 96 % 1006,5 hPa 0,0 l/m 0,2 km/h (0 Bft) NO 38 0 min 0,000 mm 0,0 UV-I 0 W/m 0,4 C 1,0 C 1,6 km/h (1 Bft) 100,00 %
10.11.2016 00:26 1,0 C 96 % 1006,5 hPa 0,0 l/m 0,0 km/h (0 Bft) NO 38 0 min 0,000 mm 0,0 UV-I 0 W/m 0,4 C 1,0 C 1,6 km/h (1 Bft) 100,00 %
10.11.2016 00:28 1,0 C 96 % 1006,5 hPa 0,0 l/m 0,1 km/h (0 Bft) NO 38 0 min 0,000 mm 0,0 UV-I 0 W/m 0,4 C 1,0 C 1,6 km/h (1 Bft) 100,00 %
10.11.2016 00:30 0,9 C 96 % 1006,5 hPa 0,0 l/m 0,5 km/h (0 Bft) NO 49 0 min 0,000 mm 0,0 UV-I 0 W/m 0,3 C 0,9 C 1,6 km/h (1 Bft) 100,00 %
10.11.2016 00:32 0,9 C 96 % 1006,5 hPa 0,0 l/m 1,4 km/h (1 Bft) NO 49 0 min 0,000 mm 0,0 UV-I 0 W/m 0,3 C 0,9 C 3,2 km/h (1 Bft) 95,45 %
10.11.2016 00:34 0,9 C 96 % 1006,5 hPa 0,0 l/m 2,1 km/h (1 Bft) NO 49 0 min 0,000 mm 0,0 UV-I 0 W/m 0,3 C 0,9 C 3,2 km/h (1 Bft) 98,11 %
10.11.2016 00:36 0,9 C 96 % 1006,5 hPa 0,0 l/m 2,9 km/h (1 Bft) O-NO 78 0 min 0,000 mm 0,0 UV-I 0 W/m 0,3 C 0,9 C 4,8 km/h (1 Bft) 100,00 %
10.11.2016 00:38 0,9 C 96 % 1006,5 hPa 0,0 l/m 1,8 km/h (1 Bft) O-NO 78 0 min 0,000 mm 0,0 UV-I 0 W/m 0,3 C 0,9 C 4,8 km/h (1 Bft) 100,00 %
10.11.2016 00:40 0,9 C 96 % 1006,5 hPa 0,0 l/m 0,8 km/h (0 Bft) O-SO 112 0 min 0,000 mm 0,0 UV-I 0 W/m 0,3 C 0,9 C 3,2 km/h (1 Bft) 100,00 %
10.11.2016 00:42 0,9 C 96 % 1006,5 hPa 0,0 l/m 2,4 km/h (1 Bft) SO 129 0 min 0,000 mm 0,0 UV-I 0 W/m 0,3 C 0,9 C 4,8 km/h (1 Bft) 98,00 %
10.11.2016 00:44 0,9 C 96 % 1006,5 hPa 0,0 l/m 1,0 km/h (0 Bft) SO 130 0 min 0,000 mm 0,0 UV-I 0 W/m 0,3 C 0,9 C 3,2 km/h (1 Bft) 100,00 %
10.11.2016 00:46 1,0 C 96 % 1006,5 hPa 0,0 l/m 1,0 km/h (0 Bft) SO 132 0 min 0,000 mm 0,0 UV-I 0 W/m 0,4 C 1,0 C 3,2 km/h (1 Bft) 100,00 %
10.11.2016 00:48 1,0 C 96 % 1006,5 hPa 0,0 l/m 1,2 km/h (1 Bft) SO 135 0 min 0,000 mm 0,0 UV-I 0 W/m 0,4 C 1,0 C 3,2 km/h (1 Bft) 100,00 %
10.11.2016 00:50 1,1 C 96 % 1006,5 hPa 0,0 l/m 1,0 km/h (0 Bft) SO 135 0 min 0,000 mm 0,0 UV-I 0 W/m 0,5 C 1,1 C 3,2 km/h (1 Bft) 100,00 %
10.11.2016 00:52 1,1 C 96 % 1006,6 hPa 0,0 l/m 2,9 km/h (1 Bft) S-SO 164 0 min 0,000 mm 0,0 UV-I 0 W/m 0,5 C 1,1 C 6,4 km/h (2 Bft) 97,87 %
10.11.2016 00:54 1,1 C 96 % 1006,6 hPa 0,0 l/m 3,1 km/h (1 Bft) S-SO 164 0 min 0,000 mm 0,0 UV-I 0 W/m 0,5 C 1,1 C 6,4 km/h (2 Bft) 100,00 %
10.11.2016 00:56 1,1 C 96 % 1006,6 hPa 0,0 l/m 1,4 km/h (1 Bft) S-SO 164 0 min 0,000 mm 0,0 UV-I 0 W/m 0,5 C 1,1 C 3,2 km/h (1 Bft) 100,00 %
10.11.2016 00:58 1,2 C 96 % 1006,5 hPa 0,0 l/m 1,5 km/h (1 Bft) S-SO 164 0 min 0,000 mm 0,0 UV-I 0 W/m 0,6 C 1,2 C 3,2 km/h (1 Bft) 97,73 %
10.11.2016 01:00 1,2 C 96 % 1006,6 hPa 0,0 l/m 2,9 km/h (1 Bft) S-SO 164 0 min 0,000 mm 0,0 UV-I 0 W/m 0,6 C 1,2 C 6,4 km/h (2 Bft) 98,00 %
10.11.2016 01:02 1,2 C 96 % 1006,6 hPa 0,2 l/m 2,8 km/h (1 Bft) S-SO 164 0 min 0,000 mm 0,0 UV-I 0 W/m 0,6 C 1,2 C 6,4 km/h (2 Bft) 100,00 %
10.11.2016 01:04 1,2 C 96 % 1006,6 hPa 0,0 l/m 1,9 km/h (1 Bft) S-SO 164 0 min 0,000 mm 0,0 UV-I 0 W/m 0,6 C 1,2 C 3,2 km/h (1 Bft) 98,00 %
10.11.2016 01:06 1,2 C 96 % 1006,6 hPa 0,0 l/m 2,0 km/h (1 Bft) S-SO 164 0 min 0,000 mm 0,0 UV-I 0 W/m 0,6 C 1,2 C 3,2 km/h (1 Bft) 97,87 %
10.11.2016 01:08 1,2 C 96 % 1006,5 hPa 0,0 l/m 1,2 km/h (1 Bft) S-SO 164 0 min 0,000 mm 0,0 UV-I 0 W/m 0,6 C 1,2 C 3,2 km/h (1 Bft) 100,00 %
10.11.2016 01:10 1,2 C 96 % 1006,6 hPa 0,0 l/m 1,4 km/h (1 Bft) S-SO 164 0 min 0,000 mm 0,0 UV-I 0 W/m 0,6 C 1,2 C 1,6 km/h (1 Bft) 100,00 %
10.11.2016 01:12 1,1 C 96 % 1006,5 hPa 0,0 l/m 1,8 km/h (1 Bft) S-SO 164 0 min 0,000 mm 0,0 UV-I 0 W/m 0,5 C 1,1 C 3,2 km/h (1 Bft) 100,00 %
10.11.2016 01:14 1,1 C 96 % 1006,5 hPa 0,0 l/m 0,9 km/h (0 Bft) S-SO 164 0 min 0,000 mm 0,0 UV-I 0 W/m 0,5 C 1,1 C 1,6 km/h (1 Bft) 100,00 %
10.11.2016 01:16 1,1 C 96 % 1006,6 hPa 0,0 l/m 2,9 km/h (1 Bft) S-SW 199 0 min 0,000 mm 0,0 UV-I 0 W/m 0,5 C 1,1 C 4,8 km/h (1 Bft) 100,00 %
10.11.2016 01:18 1,1 C 96 % 1006,5 hPa 0,0 l/m 1,9 km/h (1 Bft) S-SW 199 0 min 0,000 mm 0,0 UV-I 0 W/m 0,5 C 1,1 C 3,2 km/h (1 Bft) 98,00 %
10.11.2016 01:20 1,1 C 96 % 1006,4 hPa 0,0 l/m 1,8 km/h (1 Bft) S-SO 150 0 min 0,000 mm 0,0 UV-I 0 W/m 0,5 C 1,1 C 4,8 km/h (1 Bft) 97,37 %
10.11.2016 01:22 1,1 C 96 % 1006,4 hPa 0,2 l/m 2,5 km/h (1 Bft) SO 139 0 min 0,000 mm 0,0 UV-I 0 W/m 0,5 C 1,1 C 6,4 km/h (2 Bft) 100,00 %
10.11.2016 01:24 1,1 C 96 % 1006,5 hPa 0,0 l/m 1,6 km/h (1 Bft) SO 143 0 min 0,000 mm 0,0 UV-I 0 W/m 0,5 C 1,1 C 3,2 km/h (1 Bft) 100,00 %
10.11.2016 01:26 1,1 C 96 % 1006,7 hPa 0,0 l/m 3,3 km/h (1 Bft) S-SW 213 0 min 0,000 mm 0,0 UV-I 0 W/m 0,5 C 1,1 C 6,4 km/h (2 Bft) 98,04 %
10.11.2016 01:28 1,2 C 96 % 1006,6 hPa 0,0 l/m 3,5 km/h (1 Bft) SW 223 0 min 0,000 mm 0,0 UV-I 0 W/m 0,6 C 1,2 C 4,8 km/h (1 Bft) 98,00 %
10.11.2016 01:30 1,2 C 96 % 1006,6 hPa 0,0 l/m 1,3 km/h (1 Bft) S 184 0 min 0,000 mm 0,0 UV-I 0 W/m 0,6 C 1,2 C 3,2 km/h (1 Bft) 97,37 %
10.11.2016 01:32 1,2 C 96 % 1006,6 hPa 0,0 l/m 1,7 km/h (1 Bft) S 184 0 min 0,000 mm 0,0 UV-I 0 W/m 0,6 C 1,2 C 4,8 km/h (1 Bft) 97,87 %
10.11.2016 01:34 1,2 C 96 % 1006,8 hPa 0,2 l/m 3,1 km/h (1 Bft) S 184 0 min 0,000 mm 0,0 UV-I 0 W/m 0,6 C 1,2 C 4,8 km/h (1 Bft) 95,74 %
10.11.2016 01:36 1,2 C 96 % 1006,7 hPa 0,0 l/m 1,7 km/h (1 Bft) S 184 0 min 0,000 mm 0,0 UV-I 0 W/m 0,6 C 1,2 C 3,2 km/h (1 Bft) 98,00 %
10.11.2016 01:38 1,2 C 96 % 1006,6 hPa 0,0 l/m 1,0 km/h (0 Bft) S 184 0 min 0,000 mm 0,0 UV-I 0 W/m 0,6 C 1,2 C 3,2 km/h (1 Bft) 97,87 %
10.11.2016 01:40 1,2 C 96 % 1006,6 hPa 0,0 l/m 0,9 km/h (0 Bft) S 184 0 min 0,000 mm 0,0 UV-I 0 W/m 0,6 C 1,2 C 1,6 km/h (1 Bft) 96,00 %
10.11.2016 01:42 1,2 C 96 % 1006,6 hPa 0,2 l/m 1,4 km/h (1 Bft) S 184 0 min 0,000 mm 0,0 UV-I 0 W/m 0,6 C 1,2 C 3,2 km/h (1 Bft) 100,00 %
10.11.2016 01:44 1,2 C 96 % 1006,7 hPa 0,0 l/m 1,6 km/h (1 Bft) S 175 0 min 0,000 mm 0,0 UV-I 0 W/m 0,6 C 1,2 C 4,8 km/h (1 Bft) 96,43 %
10.11.2016 01:46 1,2 C 96 % 1006,6 hPa 0,2 l/m 2,7 km/h (1 Bft) S-SO 165 0 min 0,000 mm 0,0 UV-I 0 W/m 0,6 C 1,2 C 6,4 km/h (2 Bft) 93,62 %
10.11.2016 01:48 1,2 C 96 % 1006,7 hPa 0,0 l/m 3,7 km/h (1 Bft) S-SO 159 0 min 0,000 mm 0,0 UV-I 0 W/m 0,6 C 1,2 C 6,4 km/h (2 Bft) 97,56 %
10.11.2016 01:50 1,2 C 96 % 1006,7 hPa 0,0 l/m 1,9 km/h (1 Bft) S-SO 159 0 min 0,000 mm 0,0 UV-I 0 W/m 0,6 C 1,2 C 6,4 km/h (2 Bft) 98,00 %
10.11.2016 01:52 1,2 C 96 % 1006,7 hPa 0,0 l/m 3,0 km/h (1 Bft) S-SO 157 0 min 0,000 mm 0,0 UV-I 0 W/m 0,6 C 1,2 C 6,4 km/h (2 Bft) 96,00 %
10.11.2016 01:54 1,2 C 96 % 1006,7 hPa 0,2 l/m 0,6 km/h (0 Bft) S-SO 157 0 min 0,000 mm 0,0 UV-I 0 W/m 0,6 C 1,2 C 1,6 km/h (1 Bft) 95,12 %
10.11.2016 01:56 1,2 C 96 % 1006,7 hPa 0,0 l/m 0,3 km/h (0 Bft) S-SO 157 0 min 0,000 mm 0,0 UV-I 0 W/m 0,6 C 1,2 C 1,6 km/h (1 Bft) 98,00 %
10.11.2016 01:58 1,2 C 96 % 1006,7 hPa 0,0 l/m 2,9 km/h (1 Bft) S-SO 155 0 min 0,000 mm 0,0 UV-I 0 W/m 0,6 C 1,2 C 4,8 km/h (1 Bft) 97,73 %
10.11.2016 02:00 1,2 C 96 % 1006,8 hPa 0,2 l/m 0,9 km/h (0 Bft) S-SO 155 0 min 0,000 mm 0,0 UV-I 0 W/m 0,6 C 1,2 C 3,2 km/h (1 Bft) 96,00 %
10.11.2016 02:02 1,3 C 96 % 1006,7 hPa 0,0 l/m 0,5 km/h (0 Bft) S-SO 155 0 min 0,000 mm 0,0 UV-I 0 W/m 0,7 C 1,3 C 1,6 km/h (1 Bft) 96,00 %
10.11.2016 02:04 1,2 C 96 % 1006,7 hPa 0,0 l/m 1,2 km/h (1 Bft) S-SO 155 0 min 0,000 mm 0,0 UV-I 0 W/m 0,6 C 1,2 C 4,8 km/h (1 Bft) 100,00 %
10.11.2016 02:06 1,3 C 96 % 1006,9 hPa 0,0 l/m 2,1 km/h (1 Bft) S-SO 168 0 min 0,000 mm 0,0 UV-I 0 W/m 0,7 C 1,3 C 3,2 km/h (1 Bft) 96,77 %
10.11.2016 02:08 1,3 C 96 % 1006,8 hPa 0,2 l/m 4,2 km/h (1 Bft) S 169 0 min 0,000 mm 0,0 UV-I 0 W/m 0,7 C 1,3 C 8,0 km/h (2 Bft) 100,00 %
10.11.2016 02:10 1,3 C 96 % 1006,7 hPa 0,0 l/m 3,7 km/h (1 Bft) S-SO 152 0 min 0,000 mm 0,0 UV-I 0 W/m 0,7 C 1,3 C 6,4 km/h (2 Bft) 97,37 %
10.11.2016 02:12 1,3 C 96 % 1006,9 hPa 0,2 l/m 1,5 km/h (1 Bft) S-SO 154 0 min 0,000 mm 0,0 UV-I 0 W/m 0,7 C 1,3 C 4,8 km/h (1 Bft) 100,00 %
10.11.2016 02:14 1,3 C 96 % 1006,8 hPa 0,0 l/m 0,4 km/h (0 Bft) S-SO 154 0 min 0,000 mm 0,0 UV-I 0 W/m 0,7 C 1,3 C 1,6 km/h (1 Bft) 98,00 %
10.11.2016 02:16 1,3 C 96 % 1006,9 hPa 0,0 l/m 0,0 km/h (0 Bft) S-SO 154 0 min 0,000 mm 0,0 UV-I 0 W/m 0,7 C 1,3 C 1,6 km/h (1 Bft) 98,00 %
10.11.2016 02:18 1,3 C 96 % 1006,8 hPa 0,0 l/m 0,6 km/h (0 Bft) S-SO 154 0 min 0,000 mm 0,0 UV-I 0 W/m 0,7 C 1,3 C 1,6 km/h (1 Bft) 100,00 %
10.11.2016 02:20 1,3 C 96 % 1006,8 hPa 0,2 l/m 1,0 km/h (0 Bft) S-SO 154 0 min 0,000 mm 0,0 UV-I 0 W/m 0,7 C 1,3 C 3,2 km/h (1 Bft) 100,00 %
10.11.2016 02:22 1,3 C 97 % 1006,9 hPa 0,0 l/m 0,4 km/h (0 Bft) S-SO 154 0 min 0,000 mm 0,0 UV-I 0 W/m 0,9 C 1,3 C 3,2 km/h (1 Bft) 97,87 %
10.11.2016 02:24 1,3 C 97 % 1006,9 hPa 0,0 l/m 0,3 km/h (0 Bft) S-SO 154 0 min 0,000 mm 0,0 UV-I 0 W/m 0,9 C 1,3 C 3,2 km/h (1 Bft) 100,00 %
10.11.2016 02:26 1,3 C 97 % 1007,0 hPa 0,0 l/m 1,7 km/h (1 Bft) S-SO 154 0 min 0,000 mm 0,0 UV-I 0 W/m 0,9 C 1,3 C 3,2 km/h (1 Bft) 100,00 %
10.11.2016 02:28 1,3 C 97 % 1007,0 hPa 0,2 l/m 1,2 km/h (1 Bft) S-SO 154 0 min 0,000 mm 0,0 UV-I 0 W/m 0,9 C 1,3 C 3,2 km/h (1 Bft) 100,00 %
10.11.2016 02:30 1,3 C 97 % 1007,0 hPa 0,0 l/m 0,4 km/h (0 Bft) S-SO 154 0 min 0,000 mm 0,0 UV-I 0 W/m 0,9 C 1,3 C 1,6 km/h (1 Bft) 97,92 %
10.11.2016 02:32 1,3 C 97 % 1007,0 hPa 0,0 l/m 0,5 km/h (0 Bft) S-SO 154 0 min 0,000 mm 0,0 UV-I 0 W/m 0,9 C 1,3 C 1,6 km/h (1 Bft) 100,00 %
10.11.2016 02:34 1,3 C 97 % 1006,9 hPa 0,2 l/m 1,4 km/h (1 Bft) S-SO 154 0 min 0,000 mm 0,0 UV-I 0 W/m 0,9 C 1,3 C 3,2 km/h (1 Bft) 100,00 %
10.11.2016 02:36 1,3 C 97 % 1006,9 hPa 0,0 l/m 0,6 km/h (0 Bft) S-SO 154 0 min 0,000 mm 0,0 UV-I 0 W/m 0,9 C 1,3 C 3,2 km/h (1 Bft) 97,87 %
10.11.2016 02:38 1,3 C 97 % 1006,8 hPa 0,0 l/m 0,8 km/h (0 Bft) S-SO 154 0 min 0,000 mm 0,0 UV-I 0 W/m 0,9 C 1,3 C 1,6 km/h (1 Bft) 98,00 %
10.11.2016 02:40 1,3 C 97 % 1006,8 hPa 0,2 l/m 2,7 km/h (1 Bft) S-SO 154 0 min 0,000 mm 0,0 UV-I 0 W/m 0,9 C 1,3 C 4,8 km/h (1 Bft) 100,00 %
10.11.2016 02:42 1,3 C 97 % 1006,7 hPa 0,0 l/m 2,9 km/h (1 Bft) S-SO 154 0 min 0,000 mm 0,0 UV-I 0 W/m 0,9 C 1,3 C 3,2 km/h (1 Bft) 100,00 %
10.11.2016 02:44 1,3 C 97 % 1006,6 hPa 0,0 l/m 2,4 km/h (1 Bft) S-SO 154 0 min 0,000 mm 0,0 UV-I 0 W/m 0,9 C 1,3 C 4,8 km/h (1 Bft) 100,00 %
10.11.2016 02:46 1,3 C 97 % 1006,6 hPa 0,0 l/m 3,3 km/h (1 Bft) S-SO 154 0 min 0,000 mm 0,0 UV-I 0 W/m 0,9 C 1,3 C 4,8 km/h (1 Bft) 98,00 %
10.11.2016 02:48 1,3 C 97 % 1006,5 hPa 0,0 l/m 3,8 km/h (1 Bft) S-SO 154 0 min 0,000 mm 0,0 UV-I 0 W/m 0,9 C 1,3 C 4,8 km/h (1 Bft) 97,56 %
10.11.2016 02:50 1,3 C 97 % 1006,5 hPa 0,0 l/m 3,3 km/h (1 Bft) S-SO 154 0 min 0,000 mm 0,0 UV-I 0 W/m 0,9 C 1,3 C 4,8 km/h (1 Bft) 100,00 %
10.11.2016 02:52 1,3 C 97 % 1006,5 hPa 0,0 l/m 3,2 km/h (1 Bft) S-SO 154 0 min 0,000 mm 0,0 UV-I 0 W/m 0,9 C 1,3 C 4,8 km/h (1 Bft) 100,00 %
10.11.2016 02:54 1,4 C 97 % 1006,5 hPa 0,0 l/m 2,4 km/h (1 Bft) S-SO 154 0 min 0,000 mm 0,0 UV-I 0 W/m 1,0 C 1,4 C 4,8 km/h (1 Bft) 100,00 %
10.11.2016 02:56 1,4 C 97 % 1006,5 hPa 0,0 l/m 2,0 km/h (1 Bft) S-SO 154 0 min 0,000 mm 0,0 UV-I 0 W/m 1,0 C 1,4 C 3,2 km/h (1 Bft) 100,00 %
10.11.2016 02:58 1,4 C 97 % 1006,4 hPa 0,0 l/m 2,5 km/h (1 Bft) S-SO 154 0 min 0,000 mm 0,0 UV-I 0 W/m 1,0 C 1,4 C 3,2 km/h (1 Bft) 100,00 %
10.11.2016 03:00 1,4 C 97 % 1006,5 hPa 0,0 l/m 1,4 km/h (1 Bft) S-SO 154 0 min 0,000 mm 0,0 UV-I 0 W/m 1,0 C 1,4 C 3,2 km/h (1 Bft) 100,00 %
10.11.2016 03:02 1,4 C 97 % 1006,5 hPa 0,0 l/m 1,6 km/h (1 Bft) S-SO 154 0 min 0,000 mm 0,0 UV-I 0 W/m 1,0 C 1,4 C 3,2 km/h (1 Bft) 100,00 %
10.11.2016 03:04 1,4 C 97 % 1006,5 hPa 0,0 l/m 0,8 km/h (0 Bft) S-SO 154 0 min 0,000 mm 0,0 UV-I 0 W/m 1,0 C 1,4 C 3,2 km/h (1 Bft) 100,00 %
10.11.2016 03:06 1,4 C 97 % 1006,5 hPa 0,0 l/m 0,5 km/h (0 Bft) S-SO 154 0 min 0,000 mm 0,0 UV-I 0 W/m 1,0 C 1,4 C 3,2 km/h (1 Bft) 100,00 %
10.11.2016 03:08 1,3 C 97 % 1006,5 hPa 0,0 l/m 2,2 km/h (1 Bft) S-SO 154 0 min 0,000 mm 0,0 UV-I 0 W/m 0,9 C 1,3 C 4,8 km/h (1 Bft) 100,00 %
10.11.2016 03:10 1,3 C 97 % 1006,5 hPa 0,0 l/m 1,4 km/h (1 Bft) S-SO 154 0 min 0,000 mm 0,0 UV-I 0 W/m 0,9 C 1,3 C 3,2 km/h (1 Bft) 97,87 %
10.11.2016 03:12 1,3 C 97 % 1006,5 hPa 0,0 l/m 1,5 km/h (1 Bft) S-SO 154 0 min 0,000 mm 0,0 UV-I 0 W/m 0,9 C 1,3 C 4,8 km/h (1 Bft) 100,00 %
10.11.2016 03:14 1,3 C 97 % 1006,5 hPa 0,2 l/m 1,3 km/h (1 Bft) S-SO 154 0 min 0,000 mm 0,0 UV-I 0 W/m 0,9 C 1,3 C 4,8 km/h (1 Bft) 100,00 %
10.11.2016 03:16 1,3 C 97 % 1006,4 hPa 0,0 l/m 2,3 km/h (1 Bft) S-SO 154 0 min 0,000 mm 0,0 UV-I 0 W/m 0,9 C 1,3 C 4,8 km/h (1 Bft) 100,00 %
10.11.2016 03:18 1,3 C 97 % 1006,4 hPa 0,0 l/m 1,2 km/h (1 Bft) S-SO 154 0 min 0,000 mm 0,0 UV-I 0 W/m 0,9 C 1,3 C 3,2 km/h (1 Bft) 98,21 %
10.11.2016 03:20 1,3 C 97 % 1006,4 hPa 0,0 l/m 1,1 km/h (1 Bft) S-SO 154 0 min 0,000 mm 0,0 UV-I 0 W/m 0,9 C 1,3 C 3,2 km/h (1 Bft) 100,00 %
10.11.2016 03:22 1,3 C 97 % 1006,3 hPa 0,0 l/m 3,1 km/h (1 Bft) S-SO 154 0 min 0,000 mm 0,0 UV-I 0 W/m 0,9 C 1,3 C 4,8 km/h (1 Bft) 95,12 %
10.11.2016 03:24 1,3 C 97 % 1006,2 hPa 0,0 l/m 2,4 km/h (1 Bft) S-SO 154 0 min 0,000 mm 0,0 UV-I 0 W/m 0,9 C 1,3 C 4,8 km/h (1 Bft) 100,00 %
10.11.2016 03:26 1,3 C 97 % 1006,3 hPa 0,0 l/m 1,8 km/h (1 Bft) S-SO 154 0 min 0,000 mm 0,0 UV-I 0 W/m 0,9 C 1,3 C 4,8 km/h (1 Bft) 100,00 %
10.11.2016 03:28 1,3 C 97 % 1006,2 hPa 0,0 l/m 1,0 km/h (0 Bft) S-SO 154 0 min 0,000 mm 0,0 UV-I 0 W/m 0,9 C 1,3 C 3,2 km/h (1 Bft) 100,00 %
10.11.2016 03:30 1,3 C 97 % 1006,2 hPa 0,0 l/m 1,9 km/h (1 Bft) S-SO 154 0 min 0,000 mm 0,0 UV-I 0 W/m 0,9 C 1,3 C 4,8 km/h (1 Bft) 97,56 %
10.11.2016 03:32 1,3 C 97 % 1006,3 hPa 0,0 l/m 2,3 km/h (1 Bft) S-SO 154 0 min 0,000 mm 0,0 UV-I 0 W/m 0,9 C 1,3 C 4,8 km/h (1 Bft) 100,00 %
10.11.2016 03:34 1,4 C 97 % 1006,3 hPa 0,0 l/m 0,9 km/h (0 Bft) S-SO 154 0 min 0,000 mm 0,0 UV-I 0 W/m 1,0 C 1,4 C 3,2 km/h (1 Bft) 97,37 %
10.11.2016 03:36 1,4 C 97 % 1006,2 hPa 0,0 l/m 0,2 km/h (0 Bft) S-SO 154 0 min 0,000 mm 0,0 UV-I 0 W/m 1,0 C 1,4 C 1,6 km/h (1 Bft) 97,87 %
10.11.2016 03:38 1,4 C 97 % 1006,2 hPa 0,0 l/m 1,7 km/h (1 Bft) S-SO 154 0 min 0,000 mm 0,0 UV-I 0 W/m 1,0 C 1,4 C 3,2 km/h (1 Bft) 95,83 %
10.11.2016 03:40 1,4 C 97 % 1006,2 hPa 0,0 l/m 1,7 km/h (1 Bft) S-SO 154 0 min 0,000 mm 0,0 UV-I 0 W/m 1,0 C 1,4 C 3,2 km/h (1 Bft) 98,08 %
10.11.2016 03:42 1,4 C 97 % 1006,2 hPa 0,0 l/m 0,0 km/h (0 Bft) S-SO 154 0 min 0,000 mm 0,0 UV-I 0 W/m 1,0 C 1,4 C 1,6 km/h (1 Bft) 95,83 %
10.11.2016 03:44 1,4 C 97 % 1006,2 hPa 0,0 l/m 0,0 km/h (0 Bft) S-SO 154 0 min 0,000 mm 0,0 UV-I 0 W/m 1,0 C 1,4 C 0,0 km/h (0 Bft) 100,00 %
10.11.2016 03:46 1,4 C 97 % 1006,3 hPa 0,0 l/m 0,8 km/h (0 Bft) S-SO 154 0 min 0,000 mm 0,0 UV-I 0 W/m 1,0 C 1,4 C 3,2 km/h (1 Bft) 96,43 %
10.11.2016 03:48 1,4 C 97 % 1006,3 hPa 0,0 l/m 0,0 km/h (0 Bft) S-SO 154 0 min 0,000 mm 0,0 UV-I 0 W/m 1,0 C 1,4 C 0,0 km/h (0 Bft) 97,87 %
10.11.2016 03:50 1,4 C 97 % 1006,2 hPa 0,0 l/m 0,0 km/h (0 Bft) S-SO 154 0 min 0,000 mm 0,0 UV-I 0 W/m 1,0 C 1,4 C 0,0 km/h (0 Bft) 97,87 %
10.11.2016 03:52 1,4 C 97 % 1006,2 hPa 0,0 l/m 0,1 km/h (0 Bft) S-SO 154 0 min 0,000 mm 0,0 UV-I 0 W/m 1,0 C 1,4 C 1,6 km/h (1 Bft) 97,87 %
10.11.2016 03:54 1,5 C 97 % 1006,2 hPa 0,0 l/m 0,1 km/h (0 Bft) S-SO 154 0 min 0,000 mm 0,0 UV-I 0 W/m 1,1 C 1,5 C 1,6 km/h (1 Bft) 97,37 %
10.11.2016 03:56 1,5 C 97 % 1006,2 hPa 0,0 l/m 0,3 km/h (0 Bft) S-SO 154 0 min 0,000 mm 0,0 UV-I 0 W/m 1,1 C 1,5 C 1,6 km/h (1 Bft) 97,87 %
10.11.2016 03:58 1,5 C 97 % 1006,2 hPa 0,0 l/m 0,0 km/h (0 Bft) S-SO 154 0 min 0,000 mm 0,0 UV-I 0 W/m 1,1 C 1,5 C 0,0 km/h (0 Bft) 96,43 %
10.11.2016 04:00 1,6 C 97 % 1006,2 hPa 0,2 l/m 0,0 km/h (0 Bft) S-SO 154 0 min 0,000 mm 0,0 UV-I 0 W/m 1,2 C 1,6 C 0,0 km/h (0 Bft) 93,62 %
10.11.2016 04:02 1,6 C 97 % 1006,2 hPa 0,0 l/m 0,0 km/h (0 Bft) S-SO 154 0 min 0,000 mm 0,0 UV-I 0 W/m 1,2 C 1,6 C 0,0 km/h (0 Bft) 97,56 %
10.11.2016 04:04 1,6 C 97 % 1006,2 hPa 0,0 l/m 0,0 km/h (0 Bft) S-SO 154 0 min 0,000 mm 0,0 UV-I 0 W/m 1,2 C 1,6 C 0,0 km/h (0 Bft) 97,37 %
10.11.2016 04:06 1,6 C 97 % 1006,2 hPa 0,0 l/m 0,0 km/h (0 Bft) S-SO 154 0 min 0,000 mm 0,0 UV-I 0 W/m 1,2 C 1,6 C 0,0 km/h (0 Bft) 97,87 %
10.11.2016 04:08 1,6 C 97 % 1006,2 hPa 0,0 l/m 0,0 km/h (0 Bft) S-SO 154 0 min 0,000 mm 0,0 UV-I 0 W/m 1,2 C 1,6 C 0,0 km/h (0 Bft) 97,87 %
10.11.2016 04:10 1,6 C 97 % 1006,2 hPa 0,0 l/m 0,0 km/h (0 Bft) S-SO 154 0 min 0,000 mm 0,0 UV-I 0 W/m 1,2 C 1,6 C 0,0 km/h (0 Bft) 97,87 %
10.11.2016 04:12 1,6 C 97 % 1006,2 hPa 0,0 l/m 0,0 km/h (0 Bft) S-SO 154 0 min 0,000 mm 0,0 UV-I 0 W/m 1,2 C 1,6 C 0,0 km/h (0 Bft) 98,11 %
10.11.2016 04:14 1,6 C 97 % 1006,3 hPa 0,0 l/m 0,0 km/h (0 Bft) S-SO 154 0 min 0,000 mm 0,0 UV-I 0 W/m 1,2 C 1,6 C 0,0 km/h (0 Bft) 95,74 %
10.11.2016 04:16 1,6 C 97 % 1006,2 hPa 0,0 l/m 0,0 km/h (0 Bft) S-SO 154 0 min 0,000 mm 0,0 UV-I 0 W/m 1,2 C 1,6 C 0,0 km/h (0 Bft) 100,00 %
10.11.2016 04:18 1,6 C 97 % 1006,2 hPa 0,0 l/m 0,8 km/h (0 Bft) S-SO 154 0 min 0,000 mm 0,0 UV-I 0 W/m 1,2 C 1,6 C 3,2 km/h (1 Bft) 100,00 %
10.11.2016 04:20 1,6 C 97 % 1006,2 hPa 0,0 l/m 0,4 km/h (0 Bft) S-SO 154 0 min 0,000 mm 0,0 UV-I 0 W/m 1,2 C 1,6 C 3,2 km/h (1 Bft) 97,14 %
10.11.2016 04:22 1,7 C 97 % 1006,2 hPa 0,0 l/m 1,2 km/h (1 Bft) S-SO 154 0 min 0,000 mm 0,0 UV-I 0 W/m 1,3 C 1,7 C 3,2 km/h (1 Bft) 100,00 %
10.11.2016 04:24 1,7 C 97 % 1006,2 hPa 0,0 l/m 2,9 km/h (1 Bft) S-SO 154 0 min 0,000 mm 0,0 UV-I 0 W/m 1,3 C 1,7 C 4,8 km/h (1 Bft) 100,00 %
10.11.2016 04:26 1,6 C 97 % 1006,2 hPa 0,0 l/m 2,6 km/h (1 Bft) S-SO 154 0 min 0,000 mm 0,0 UV-I 0 W/m 1,2 C 1,6 C 4,8 km/h (1 Bft) 100,00 %
10.11.2016 04:28 1,6 C 97 % 1006,1 hPa 0,0 l/m 2,7 km/h (1 Bft) S-SO 154 0 min 0,000 mm 0,0 UV-I 0 W/m 1,2 C 1,6 C 4,8 km/h (1 Bft) 100,00 %
10.11.2016 04:30 1,6 C 97 % 1006,1 hPa 0,2 l/m 2,5 km/h (1 Bft) S-SO 154 0 min 0,000 mm 0,0 UV-I 0 W/m 1,2 C 1,6 C 4,8 km/h (1 Bft) 95,74 %
10.11.2016 04:32 1,6 C 98 % 1006,1 hPa 0,0 l/m 3,8 km/h (1 Bft) SO 136 0 min 0,000 mm 0,0 UV-I 0 W/m 1,3 C 1,6 C 4,8 km/h (1 Bft) 96,00 %
10.11.2016 04:34 1,6 C 98 % 1006,1 hPa 0,0 l/m 3,7 km/h (1 Bft) O 101 0 min 0,000 mm 0,0 UV-I 0 W/m 1,3 C 1,6 C 6,4 km/h (2 Bft) 94,00 %
10.11.2016 04:36 1,7 C 98 % 1006,1 hPa 0,0 l/m 3,5 km/h (1 Bft) O 101 0 min 0,000 mm 0,0 UV-I 0 W/m 1,4 C 1,7 C 4,8 km/h (1 Bft) 100,00 %
10.11.2016 04:38 1,7 C 98 % 1006,1 hPa 0,0 l/m 2,6 km/h (1 Bft) O 101 0 min 0,000 mm 0,0 UV-I 0 W/m 1,4 C 1,7 C 4,8 km/h (1 Bft) 100,00 %
10.11.2016 04:40 1,7 C 98 % 1006,1 hPa 0,0 l/m 2,2 km/h (1 Bft) O 101 0 min 0,000 mm 0,0 UV-I 0 W/m 1,4 C 1,7 C 3,2 km/h (1 Bft) 97,56 %
10.11.2016 04:42 1,7 C 98 % 1006,2 hPa 0,0 l/m 0,4 km/h (0 Bft) O 101 0 min 0,000 mm 0,0 UV-I 0 W/m 1,4 C 1,7 C 1,6 km/h (1 Bft) 100,00 %
10.11.2016 04:44 1,7 C 98 % 1006,2 hPa 0,0 l/m 0,0 km/h (0 Bft) O 101 0 min 0,000 mm 0,0 UV-I 0 W/m 1,4 C 1,7 C 0,0 km/h (0 Bft) 100,00 %
10.11.2016 04:46 1,7 C 98 % 1006,1 hPa 0,0 l/m 0,6 km/h (0 Bft) O 101 0 min 0,000 mm 0,0 UV-I 0 W/m 1,4 C 1,7 C 3,2 km/h (1 Bft) 97,87 %
10.11.2016 04:48 1,6 C 98 % 1006,2 hPa 0,0 l/m 0,2 km/h (0 Bft) O 101 0 min 0,000 mm 0,0 UV-I 0 W/m 1,3 C 1,6 C 1,6 km/h (1 Bft) 97,87 %
10.11.2016 04:50 1,6 C 98 % 1006,1 hPa 0,0 l/m 0,1 km/h (0 Bft) O 101 0 min 0,000 mm 0,0 UV-I 0 W/m 1,3 C 1,6 C 1,6 km/h (1 Bft) 97,87 %
10.11.2016 04:52 1,7 C 98 % 1006,1 hPa 0,0 l/m 0,0 km/h (0 Bft) O 101 0 min 0,000 mm 0,0 UV-I 0 W/m 1,4 C 1,7 C 1,6 km/h (1 Bft) 96,00 %
10.11.2016 04:54 1,7 C 98 % 1006,2 hPa 0,0 l/m 0,3 km/h (0 Bft) O 101 0 min 0,000 mm 0,0 UV-I 0 W/m 1,4 C 1,7 C 1,6 km/h (1 Bft) 100,00 %
10.11.2016 04:56 1,7 C 98 % 1006,1 hPa 0,0 l/m 0,9 km/h (0 Bft) O-SO 104 0 min 0,000 mm 0,0 UV-I 0 W/m 1,4 C 1,7 C 3,2 km/h (1 Bft) 100,00 %
10.11.2016 04:58 1,7 C 98 % 1006,1 hPa 0,0 l/m 1,4 km/h (1 Bft) O-SO 104 0 min 0,000 mm 0,0 UV-I 0 W/m 1,4 C 1,7 C 3,2 km/h (1 Bft) 100,00 %
10.11.2016 05:00 1,7 C 98 % 1006,1 hPa 0,0 l/m 2,7 km/h (1 Bft) O-SO 115 0 min 0,000 mm 0,0 UV-I 0 W/m 1,4 C 1,7 C 4,8 km/h (1 Bft) 100,00 %
10.11.2016 05:02 1,7 C 98 % 1006,1 hPa 0,0 l/m 2,6 km/h (1 Bft) SO 126 0 min 0,000 mm 0,0 UV-I 0 W/m 1,4 C 1,7 C 4,8 km/h (1 Bft) 100,00 %
10.11.2016 05:04 1,8 C 98 % 1006,1 hPa 0,0 l/m 4,8 km/h (1 Bft) S-SW 209 0 min 0,000 mm 0,0 UV-I 0 W/m 1,5 C 1,8 C 6,4 km/h (2 Bft) 100,00 %
10.11.2016 05:06 1,9 C 98 % 1006,1 hPa 0,0 l/m 6,1 km/h (2 Bft) W-SW 238 0 min 0,000 mm 0,0 UV-I 0 W/m 1,6 C 1,9 C 8,0 km/h (2 Bft) 100,00 %
10.11.2016 05:08 2,1 C 98 % 1006,1 hPa 0,0 l/m 5,5 km/h (1 Bft) SW 232 0 min 0,000 mm 0,0 UV-I 0 W/m 1,8 C 2,1 C 8,0 km/h (2 Bft) 100,00 %
10.11.2016 05:10 2,3 C 98 % 1006,1 hPa 0,0 l/m 6,9 km/h (2 Bft) SW 235 0 min 0,000 mm 0,0 UV-I 0 W/m 2,0 C 1,8 C 9,7 km/h (2 Bft) 100,00 %
10.11.2016 05:12 2,4 C 98 % 1006,1 hPa 0,0 l/m 9,4 km/h (2 Bft) W-SW 239 0 min 0,000 mm 0,0 UV-I 0 W/m 2,1 C -0,3 C 14,5 km/h (3 Bft) 97,56 %
10.11.2016 05:14 2,6 C 98 % 1006,1 hPa 0,0 l/m 8,7 km/h (2 Bft) W-SW 238 0 min 0,000 mm 0,0 UV-I 0 W/m 2,3 C 0,5 C 14,5 km/h (3 Bft) 100,00 %
10.11.2016 05:16 2,7 C 98 % 1006,1 hPa 0,0 l/m 10,2 km/h (2 Bft) SW 233 0 min 0,000 mm 0,0 UV-I 0 W/m 2,4 C -0,6 C 14,5 km/h (3 Bft) 100,00 %
10.11.2016 05:18 2,8 C 98 % 1006,1 hPa 0,0 l/m 11,7 km/h (2 Bft) W-SW 242 0 min 0,000 mm 0,0 UV-I 0 W/m 2,5 C -1,6 C 16,1 km/h (3 Bft) 100,00 %
10.11.2016 05:20 3,0 C 98 % 1006,1 hPa 0,0 l/m 10,8 km/h (2 Bft) SW 223 0 min 0,000 mm 0,0 UV-I 0 W/m 2,7 C -0,7 C 16,1 km/h (3 Bft) 100,00 %
10.11.2016 05:22 3,1 C 98 % 1006,1 hPa 0,0 l/m 10,0 km/h (2 Bft) W-SW 239 0 min 0,000 mm 0,0 UV-I 0 W/m 2,8 C -0,0 C 14,5 km/h (3 Bft) 100,00 %
10.11.2016 05:24 3,2 C 98 % 1006,1 hPa 0,0 l/m 9,9 km/h (2 Bft) W-SW 248 0 min 0,000 mm 0,0 UV-I 0 W/m 2,9 C 0,2 C 14,5 km/h (3 Bft) 100,00 %
10.11.2016 05:26 3,3 C 98 % 1006,1 hPa 0,0 l/m 10,2 km/h (2 Bft) SW 229 0 min 0,000 mm 0,0 UV-I 0 W/m 3,0 C 0,0 C 17,7 km/h (3 Bft) 100,00 %
10.11.2016 05:28 3,4 C 98 % 1006,1 hPa 0,0 l/m 10,7 km/h (2 Bft) W-SW 248 0 min 0,000 mm 0,0 UV-I 0 W/m 3,1 C -0,2 C 16,1 km/h (3 Bft) 97,73 %
10.11.2016 05:30 3,5 C 97 % 1006,0 hPa 0,0 l/m 11,7 km/h (2 Bft) W-SW 247 0 min 0,000 mm 0,0 UV-I 0 W/m 3,1 C -0,8 C 17,7 km/h (3 Bft) 100,00 %
10.11.2016 05:32 3,6 C 97 % 1006,0 hPa 0,0 l/m 11,3 km/h (2 Bft) SW 232 0 min 0,000 mm 0,0 UV-I 0 W/m 3,2 C -0,4 C 16,1 km/h (3 Bft) 98,11 %
10.11.2016 05:34 3,7 C 97 % 1006,0 hPa 0,0 l/m 9,1 km/h (2 Bft) W-SW 238 0 min 0,000 mm 0,0 UV-I 0 W/m 3,3 C 1,3 C 14,5 km/h (3 Bft) 100,00 %
10.11.2016 05:36 3,7 C 96 % 1006,0 hPa 0,0 l/m 12,2 km/h (2 Bft) SW 235 0 min 0,000 mm 0,0 UV-I 0 W/m 3,1 C -0,9 C 19,3 km/h (3 Bft) 100,00 %
10.11.2016 05:38 3,8 C 96 % 1006,0 hPa 0,0 l/m 11,3 km/h (2 Bft) W-SW 246 0 min 0,000 mm 0,0 UV-I 0 W/m 3,2 C -0,2 C 17,7 km/h (3 Bft) 96,23 %
10.11.2016 05:40 3,8 C 96 % 1006,0 hPa 0,0 l/m 14,0 km/h (3 Bft) SW 221 0 min 0,000 mm 0,0 UV-I 0 W/m 3,2 C -1,8 C 19,3 km/h (3 Bft) 100,00 %
10.11.2016 05:42 3,9 C 95 % 1006,1 hPa 0,0 l/m 12,6 km/h (3 Bft) S-SW 203 0 min 0,000 mm 0,0 UV-I 0 W/m 3,2 C -0,9 C 17,7 km/h (3 Bft) 96,23 %
10.11.2016 05:44 4,0 C 95 % 1006,1 hPa 0,0 l/m 13,1 km/h (3 Bft) SW 223 0 min 0,000 mm 0,0 UV-I 0 W/m 3,3 C -1,1 C 17,7 km/h (3 Bft) 97,44 %
10.11.2016 05:46 4,1 C 94 % 1006,1 hPa 0,0 l/m 14,3 km/h (3 Bft) SW 221 0 min 0,000 mm 0,0 UV-I 0 W/m 3,2 C -1,6 C 20,9 km/h (4 Bft) 96,23 %
10.11.2016 05:48 4,1 C 94 % 1006,1 hPa 0,0 l/m 14,5 km/h (3 Bft) W-SW 238 0 min 0,000 mm 0,0 UV-I 0 W/m 3,2 C -1,7 C 22,5 km/h (4 Bft) 95,74 %
10.11.2016 05:50 4,2 C 93 % 1006,0 hPa 0,0 l/m 13,7 km/h (3 Bft) W-SW 257 0 min 0,000 mm 0,0 UV-I 0 W/m 3,2 C -1,2 C 20,9 km/h (4 Bft) 98,00 %
10.11.2016 05:52 4,2 C 93 % 1006,1 hPa 0,0 l/m 10,1 km/h (2 Bft) S-SW 213 0 min 0,000 mm 0,0 UV-I 0 W/m 3,2 C 1,1 C 16,1 km/h (3 Bft) 94,29 %
10.11.2016 05:54 4,2 C 92 % 1006,1 hPa 0,0 l/m 14,2 km/h (3 Bft) SW 235 0 min 0,000 mm 0,0 UV-I 0 W/m 3,0 C -1,5 C 22,5 km/h (4 Bft) 98,21 %
10.11.2016 05:56 4,2 C 92 % 1006,1 hPa 0,0 l/m 12,5 km/h (3 Bft) S-SW 209 0 min 0,000 mm 0,0 UV-I 0 W/m 3,0 C -0,5 C 19,3 km/h (3 Bft) 98,00 %
10.11.2016 05:58 4,2 C 92 % 1006,1 hPa 0,0 l/m 12,5 km/h (3 Bft) SW 229 0 min 0,000 mm 0,0 UV-I 0 W/m 3,0 C -0,5 C 16,1 km/h (3 Bft) 95,45 %
10.11.2016 06:00 4,2 C 92 % 1006,1 hPa 0,0 l/m 10,9 km/h (2 Bft) SW 227 0 min 0,000 mm 0,0 UV-I 0 W/m 3,0 C 0,6 C 17,7 km/h (3 Bft) 96,00 %
10.11.2016 06:02 4,1 C 92 % 1006,1 hPa 0,0 l/m 11,9 km/h (2 Bft) SW 236 0 min 0,000 mm 0,0 UV-I 0 W/m 2,9 C -0,2 C 19,3 km/h (3 Bft) 100,00 %
10.11.2016 06:04 4,1 C 92 % 1006,1 hPa 0,0 l/m 12,8 km/h (3 Bft) W-SW 238 0 min 0,000 mm 0,0 UV-I 0 W/m 2,9 C -0,8 C 16,1 km/h (3 Bft) 96,23 %
10.11.2016 06:06 4,1 C 92 % 1006,1 hPa 0,0 l/m 10,0 km/h (2 Bft) W-SW 238 0 min 0,000 mm 0,0 UV-I 0 W/m 2,9 C 1,1 C 16,1 km/h (3 Bft) 98,00 %
10.11.2016 06:08 4,0 C 92 % 1006,1 hPa 0,0 l/m 10,5 km/h (2 Bft) SW 231 0 min 0,000 mm 0,0 UV-I 0 W/m 2,8 C 0,6 C 14,5 km/h (3 Bft) 95,12 %
10.11.2016 06:10 3,9 C 92 % 1006,0 hPa 0,0 l/m 8,2 km/h (2 Bft) S-SW 196 0 min 0,000 mm 0,0 UV-I 0 W/m 2,7 C 2,3 C 12,9 km/h (3 Bft) 95,12 %
10.11.2016 06:12 3,9 C 92 % 1006,0 hPa 0,0 l/m 9,0 km/h (2 Bft) SW 227 0 min 0,000 mm 0,0 UV-I 0 W/m 2,7 C 1,6 C 12,9 km/h (3 Bft) 96,23 %
10.11.2016 06:14 3,8 C 92 % 1006,0 hPa 0,0 l/m 7,7 km/h (2 Bft) SW 234 0 min 0,000 mm 0,0 UV-I 0 W/m 2,6 C 2,6 C 12,9 km/h (3 Bft) 97,73 %
10.11.2016 06:16 3,8 C 92 % 1006,0 hPa 0,0 l/m 7,5 km/h (2 Bft) SW 218 0 min 0,000 mm 0,0 UV-I 0 W/m 2,6 C 2,8 C 12,9 km/h (3 Bft) 98,11 %
10.11.2016 06:18 3,8 C 92 % 1006,0 hPa 0,0 l/m 9,1 km/h (2 Bft) SW 216 0 min 0,000 mm 0,0 UV-I 0 W/m 2,6 C 1,4 C 11,3 km/h (2 Bft) 97,44 %
10.11.2016 06:20 3,8 C 92 % 1006,0 hPa 0,0 l/m 7,6 km/h (2 Bft) SW 223 0 min 0,000 mm 0,0 UV-I 0 W/m 2,6 C 2,7 C 11,3 km/h (2 Bft) 94,23 %
10.11.2016 06:22 3,8 C 92 % 1006,0 hPa 0,0 l/m 6,6 km/h (2 Bft) S-SW 213 0 min 0,000 mm 0,0 UV-I 0 W/m 2,6 C 3,6 C 9,7 km/h (2 Bft) 100,00 %
10.11.2016 06:24 3,7 C 92 % 1006,0 hPa 0,0 l/m 6,9 km/h (2 Bft) SW 229 0 min 0,000 mm 0,0 UV-I 0 W/m 2,5 C 3,2 C 9,7 km/h (2 Bft) 100,00 %
10.11.2016 06:26 3,8 C 92 % 1006,0 hPa 0,0 l/m 7,7 km/h (2 Bft) SW 215 0 min 0,000 mm 0,0 UV-I 0 W/m 2,6 C 2,6 C 11,3 km/h (2 Bft) 100,00 %
10.11.2016 06:28 3,7 C 92 % 1005,9 hPa 0,0 l/m 9,3 km/h (2 Bft) SW 220 0 min 0,000 mm 0,0 UV-I 0 W/m 2,5 C 1,2 C 16,1 km/h (3 Bft) 100,00 %
10.11.2016 06:30 3,7 C 92 % 1006,0 hPa 0,0 l/m 9,8 km/h (2 Bft) W-SW 239 0 min 0,000 mm 0,0 UV-I 0 W/m 2,5 C 0,8 C 12,9 km/h (3 Bft) 98,00 %
10.11.2016 06:32 3,7 C 92 % 1006,0 hPa 0,0 l/m 9,6 km/h (2 Bft) SW 229 0 min 0,000 mm 0,0 UV-I 0 W/m 2,5 C 0,9 C 12,9 km/h (3 Bft) 98,00 %
10.11.2016 06:34 3,7 C 92 % 1006,0 hPa 0,0 l/m 9,4 km/h (2 Bft) W-SW 237 0 min 0,000 mm 0,0 UV-I 0 W/m 2,5 C 1,1 C 14,5 km/h (3 Bft) 100,00 %
10.11.2016 06:36 3,7 C 92 % 1006,0 hPa 0,0 l/m 7,9 km/h (2 Bft) W 265 0 min 0,000 mm 0,0 UV-I 0 W/m 2,5 C 2,3 C 12,9 km/h (3 Bft) 100,00 %
10.11.2016 06:38 3,7 C 92 % 1006,0 hPa 0,0 l/m 8,6 km/h (2 Bft) SW 225 0 min 0,000 mm 0,0 UV-I 0 W/m 2,5 C 1,7 C 12,9 km/h (3 Bft) 97,37 %
10.11.2016 06:40 3,7 C 92 % 1006,0 hPa 0,0 l/m 7,7 km/h (2 Bft) SW 232 0 min 0,000 mm 0,0 UV-I 0 W/m 2,5 C 2,5 C 11,3 km/h (2 Bft) 100,00 %
10.11.2016 06:42 3,7 C 92 % 1006,0 hPa 0,0 l/m 8,4 km/h (2 Bft) W-SW 240 0 min 0,000 mm 0,0 UV-I 0 W/m 2,5 C 1,9 C 12,9 km/h (3 Bft) 100,00 %
10.11.2016 06:44 3,8 C 92 % 1006,0 hPa 0,0 l/m 8,3 km/h (2 Bft) SW 233 0 min 0,000 mm 0,0 UV-I 0 W/m 2,6 C 2,1 C 14,5 km/h (3 Bft) 98,00 %
10.11.2016 06:46 3,7 C 92 % 1006,0 hPa 0,0 l/m 6,9 km/h (2 Bft) W-SW 238 0 min 0,000 mm 0,0 UV-I 0 W/m 2,5 C 3,2 C 9,7 km/h (2 Bft) 100,00 %
10.11.2016 06:48 3,8 C 92 % 1006,0 hPa 0,0 l/m 7,1 km/h (2 Bft) W-SW 238 0 min 0,000 mm 0,0 UV-I 0 W/m 2,6 C 3,2 C 12,9 km/h (3 Bft) 96,61 %
10.11.2016 06:50 3,8 C 92 % 1006,0 hPa 0,0 l/m 6,8 km/h (2 Bft) W-SW 244 0 min 0,000 mm 0,0 UV-I 0 W/m 2,6 C 3,4 C 9,7 km/h (2 Bft) 97,37 %
10.11.2016 06:52 3,8 C 92 % 1006,0 hPa 0,0 l/m 6,4 km/h (2 Bft) SW 232 0 min 0,000 mm 0,0 UV-I 0 W/m 2,6 C 3,8 C 8,0 km/h (2 Bft) 100,00 %
10.11.2016 06:54 3,8 C 92 % 1005,9 hPa 0,0 l/m 5,8 km/h (2 Bft) SW 234 0 min 0,000 mm 0,0 UV-I 0 W/m 2,6 C 3,8 C 8,0 km/h (2 Bft) 100,00 %
10.11.2016 06:56 3,8 C 91 % 1006,0 hPa 0,0 l/m 5,4 km/h (1 Bft) SW 223 0 min 0,000 mm 0,0 UV-I 4 W/m 2,5 C 3,8 C 8,0 km/h (2 Bft) 100,00 %
10.11.2016 06:58 3,8 C 91 % 1006,0 hPa 0,0 l/m 5,7 km/h (1 Bft) SW 215 0 min 0,000 mm 0,0 UV-I 5 W/m 2,5 C 3,8 C 8,0 km/h (2 Bft) 100,00 %
10.11.2016 07:00 3,8 C 91 % 1006,0 hPa 0,0 l/m 5,5 km/h (1 Bft) SW 217 0 min 0,000 mm 0,0 UV-I 5 W/m 2,5 C 3,8 C 8,0 km/h (2 Bft) 97,87 %
10.11.2016 07:02 3,8 C 91 % 1006,0 hPa 0,0 l/m 4,9 km/h (1 Bft) SW 221 0 min 0,000 mm 0,0 UV-I 5 W/m 2,5 C 3,8 C 6,4 km/h (2 Bft) 100,00 %
10.11.2016 07:04 3,8 C 91 % 1006,0 hPa 0,0 l/m 4,5 km/h (1 Bft) SW 224 0 min 0,000 mm 0,0 UV-I 5 W/m 2,5 C 3,8 C 6,4 km/h (2 Bft) 100,00 %
10.11.2016 07:06 3,8 C 91 % 1006,0 hPa 0,0 l/m 4,6 km/h (1 Bft) SW 224 0 min 0,000 mm 0,0 UV-I 5 W/m 2,5 C 3,8 C 6,4 km/h (2 Bft) 97,87 %
10.11.2016 07:08 3,7 C 92 % 1006,0 hPa 0,0 l/m 4,2 km/h (1 Bft) SW 223 0 min 0,000 mm 0,0 UV-I 7 W/m 2,5 C 3,7 C 6,4 km/h (2 Bft) 100,00 %
10.11.2016 07:10 3,7 C 92 % 1006,0 hPa 0,0 l/m 4,7 km/h (1 Bft) SW 234 0 min 0,000 mm 0,0 UV-I 7 W/m 2,5 C 3,7 C 6,4 km/h (2 Bft) 100,00 %
10.11.2016 07:12 3,7 C 92 % 1006,0 hPa 0,0 l/m 4,9 km/h (1 Bft) SW 229 0 min 0,000 mm 0,0 UV-I 7 W/m 2,5 C 3,7 C 6,4 km/h (2 Bft) 100,00 %
10.11.2016 07:14 3,7 C 91 % 1006,1 hPa 0,0 l/m 4,9 km/h (1 Bft) W-SW 245 0 min 0,000 mm 0,0 UV-I 7 W/m 2,4 C 3,7 C 6,4 km/h (2 Bft) 100,00 %
10.11.2016 07:16 3,7 C 91 % 1006,0 hPa 0,0 l/m 4,4 km/h (1 Bft) SW 215 0 min 0,000 mm 0,0 UV-I 8 W/m 2,4 C 3,7 C 6,4 km/h (2 Bft) 100,00 %
10.11.2016 07:18 3,7 C 91 % 1006,0 hPa 0,0 l/m 4,7 km/h (1 Bft) SW 227 0 min 0,000 mm 0,0 UV-I 9 W/m 2,4 C 3,7 C 9,7 km/h (2 Bft) 100,00 %
10.11.2016 07:20 3,7 C 91 % 1006,0 hPa 0,0 l/m 3,8 km/h (1 Bft) SW 234 0 min 0,000 mm 0,0 UV-I 9 W/m 2,4 C 3,7 C 6,4 km/h (2 Bft) 100,00 %
10.11.2016 07:22 3,7 C 91 % 1006,0 hPa 0,0 l/m 4,0 km/h (1 Bft) SW 234 0 min 0,000 mm 0,0 UV-I 9 W/m 2,4 C 3,7 C 6,4 km/h (2 Bft) 97,73 %
10.11.2016 07:24 3,6 C 91 % 1006,1 hPa 0,0 l/m 3,3 km/h (1 Bft) W 263 0 min 0,000 mm 0,0 UV-I 10 W/m 2,3 C 3,6 C 4,8 km/h (1 Bft) 98,00 %
10.11.2016 07:26 3,6 C 91 % 1006,0 hPa 0,0 l/m 1,5 km/h (1 Bft) W 263 0 min 0,000 mm 0,0 UV-I 11 W/m 2,3 C 3,6 C 3,2 km/h (1 Bft) 100,00 %
10.11.2016 07:28 3,6 C 91 % 1006,1 hPa 0,0 l/m 1,4 km/h (1 Bft) W 263 0 min 0,000 mm 0,0 UV-I 12 W/m 2,3 C 3,6 C 3,2 km/h (1 Bft) 97,87 %
10.11.2016 07:30 3,5 C 92 % 1006,1 hPa 0,0 l/m 0,9 km/h (0 Bft) W 263 0 min 0,000 mm 0,0 UV-I 12 W/m 2,3 C 3,5 C 3,2 km/h (1 Bft) 98,00 %
10.11.2016 07:32 3,3 C 92 % 1006,2 hPa 0,0 l/m 2,9 km/h (1 Bft) N 355 0 min 0,000 mm 0,0 UV-I 14 W/m 2,1 C 3,3 C 4,8 km/h (1 Bft) 97,87 %
10.11.2016 07:34 3,0 C 92 % 1006,2 hPa 0,0 l/m 4,1 km/h (1 Bft) NO 36 0 min 0,000 mm 0,0 UV-I 14 W/m 1,8 C 3,0 C 6,4 km/h (2 Bft) 100,00 %
10.11.2016 07:36 2,7 C 92 % 1006,2 hPa 0,0 l/m 3,9 km/h (1 Bft) NO 37 0 min 0,000 mm 0,0 UV-I 14 W/m 1,5 C 2,7 C 6,4 km/h (2 Bft) 97,87 %
10.11.2016 07:38 2,3 C 93 % 1006,2 hPa 0,0 l/m 6,9 km/h (2 Bft) NO 47 0 min 0,000 mm 0,0 UV-I 16 W/m 1,3 C 1,8 C 8,0 km/h (2 Bft) 98,11 %
10.11.2016 07:40 2,1 C 93 % 1006,2 hPa 0,0 l/m 5,2 km/h (1 Bft) O-NO 69 0 min 0,000 mm 0,0 UV-I 18 W/m 1,1 C 2,1 C 8,0 km/h (2 Bft) 100,00 %
10.11.2016 07:42 1,9 C 94 % 1006,3 hPa 0,0 l/m 3,9 km/h (1 Bft) O-NO 62 0 min 0,000 mm 0,0 UV-I 20 W/m 1,0 C 1,9 C 4,8 km/h (1 Bft) 100,00 %
10.11.2016 07:44 1,8 C 94 % 1006,3 hPa 0,0 l/m 1,4 km/h (1 Bft) O-NO 62 0 min 0,000 mm 0,0 UV-I 26 W/m 0,9 C 1,8 C 3,2 km/h (1 Bft) 98,00 %
10.11.2016 07:46 1,7 C 95 % 1006,4 hPa 0,0 l/m 3,4 km/h (1 Bft) O-NO 75 0 min 0,000 mm 0,0 UV-I 25 W/m 1,0 C 1,7 C 4,8 km/h (1 Bft) 98,00 %
10.11.2016 07:48 1,7 C 95 % 1006,4 hPa 0,0 l/m 2,2 km/h (1 Bft) O-NO 75 0 min 0,000 mm 0,0 UV-I 30 W/m 1,0 C 1,7 C 3,2 km/h (1 Bft) 100,00 %
10.11.2016 07:50 1,7 C 95 % 1006,4 hPa 0,0 l/m 0,4 km/h (0 Bft) O-NO 75 0 min 0,000 mm 0,0 UV-I 33 W/m 1,0 C 1,7 C 1,6 km/h (1 Bft) 98,00 %
10.11.2016 07:52 1,8 C 96 % 1006,5 hPa 0,0 l/m 1,1 km/h (1 Bft) NO 46 0 min 0,000 mm 0,0 UV-I 34 W/m 1,2 C 1,8 C 3,2 km/h (1 Bft) 100,00 %
10.11.2016 07:54 1,8 C 96 % 1006,6 hPa 0,0 l/m 0,4 km/h (0 Bft) N-NO 22 0 min 0,000 mm 0,0 UV-I 39 W/m 1,2 C 1,8 C 3,2 km/h (1 Bft) 95,74 %
10.11.2016 07:56 1,8 C 96 % 1006,6 hPa 0,0 l/m 0,0 km/h (0 Bft) N-NO 22 0 min 0,000 mm 0,0 UV-I 40 W/m 1,2 C 1,8 C 0,0 km/h (0 Bft) 100,00 %
10.11.2016 07:58 1,9 C 96 % 1006,7 hPa 0,0 l/m 0,0 km/h (0 Bft) N-NO 22 0 min 0,000 mm 0,0 UV-I 38 W/m 1,3 C 1,9 C 0,0 km/h (0 Bft) 100,00 %
10.11.2016 08:00 1,9 C 96 % 1006,8 hPa 0,0 l/m 0,2 km/h (0 Bft) N-NO 22 0 min 0,000 mm 0,0 UV-I 47 W/m 1,3 C 1,9 C 1,6 km/h (1 Bft) 100,00 %
10.11.2016 08:02 2,1 C 97 % 1006,8 hPa 0,0 l/m 0,0 km/h (0 Bft) N-NO 22 0 min 0,000 mm 0,0 UV-I 53 W/m 1,7 C 2,1 C 0,0 km/h (0 Bft) 96,23 %
10.11.2016 08:04 2,1 C 97 % 1006,8 hPa 0,0 l/m 0,0 km/h (0 Bft) N-NO 22 0 min 0,000 mm 0,0 UV-I 45 W/m 1,7 C 2,1 C 1,6 km/h (1 Bft) 98,00 %
10.11.2016 08:06 2,1 C 96 % 1006,8 hPa 0,0 l/m 0,1 km/h (0 Bft) N-NO 22 0 min 0,000 mm 0,0 UV-I 36 W/m 1,5 C 2,1 C 1,6 km/h (1 Bft) 92,11 %
10.11.2016 08:08 2,1 C 96 % 1006,8 hPa 0,0 l/m 0,0 km/h (0 Bft) N-NO 22 0 min 0,000 mm 0,0 UV-I 37 W/m 1,5 C 2,1 C 1,6 km/h (1 Bft) 97,87 %
10.11.2016 08:10 2,2 C 97 % 1006,8 hPa 0,0 l/m 0,0 km/h (0 Bft) N-NO 22 0 min 0,000 mm 0,0 UV-I 47 W/m 1,8 C 2,2 C 0,0 km/h (0 Bft) 97,87 %
10.11.2016 08:12 2,2 C 97 % 1006,8 hPa 0,0 l/m 1,6 km/h (1 Bft) N-NO 22 0 min 0,000 mm 0,0 UV-I 47 W/m 1,8 C 2,2 C 3,2 km/h (1 Bft) 96,00 %
10.11.2016 08:14 2,4 C 97 % 1006,8 hPa 0,0 l/m 3,2 km/h (1 Bft) S-SW 195 0 min 0,000 mm 0,0 UV-I 50 W/m 2,0 C 2,4 C 6,4 km/h (2 Bft) 98,00 %
10.11.2016 08:16 2,6 C 97 % 1006,8 hPa 0,0 l/m 3,9 km/h (1 Bft) W 273 0 min 0,000 mm 0,0 UV-I 54 W/m 2,2 C 2,6 C 9,7 km/h (2 Bft) 97,87 %
10.11.2016 08:18 2,8 C 97 % 1006,9 hPa 0,0 l/m 7,0 km/h (2 Bft) W 263 0 min 0,000 mm 0,0 UV-I 58 W/m 2,4 C 2,2 C 12,9 km/h (3 Bft) 94,00 %
10.11.2016 08:20 3,1 C 97 % 1006,9 hPa 0,0 l/m 5,7 km/h (1 Bft) W-SW 254 0 min 0,000 mm 0,0 UV-I 57 W/m 2,7 C 3,1 C 9,7 km/h (2 Bft) 95,00 %
10.11.2016 08:22 3,2 C 97 % 1007,0 hPa 0,0 l/m 4,0 km/h (1 Bft) W 259 0 min 0,000 mm 0,0 UV-I 53 W/m 2,8 C 3,2 C 6,4 km/h (2 Bft) 97,56 %
10.11.2016 08:24 3,2 C 96 % 1007,0 hPa 0,0 l/m 2,7 km/h (1 Bft) W 259 0 min 0,000 mm 0,0 UV-I 56 W/m 2,6 C 3,2 C 4,8 km/h (1 Bft) 96,43 %
10.11.2016 08:26 3,1 C 95 % 1007,0 hPa 0,0 l/m 3,8 km/h (1 Bft) W-SW 247 0 min 0,000 mm 0,0 UV-I 61 W/m 2,4 C 3,1 C 6,4 km/h (2 Bft) 97,56 %
10.11.2016 08:28 3,2 C 96 % 1007,0 hPa 0,0 l/m 5,0 km/h (1 Bft) W-SW 239 0 min 0,000 mm 0,0 UV-I 47 W/m 2,6 C 3,2 C 8,0 km/h (2 Bft) 98,11 %
10.11.2016 08:30 3,2 C 96 % 1007,0 hPa 0,0 l/m 7,5 km/h (2 Bft) W-SW 238 0 min 0,000 mm 0,0 UV-I 44 W/m 2,6 C 2,2 C 11,3 km/h (2 Bft) 97,87 %
10.11.2016 08:32 3,3 C 96 % 1007,0 hPa 0,0 l/m 8,9 km/h (2 Bft) SW 225 0 min 0,000 mm 0,0 UV-I 48 W/m 2,7 C 1,1 C 14,5 km/h (3 Bft) 97,56 %
10.11.2016 08:34 3,5 C 96 % 1007,0 hPa 0,0 l/m 7,1 km/h (2 Bft) SW 225 0 min 0,000 mm 0,0 UV-I 50 W/m 2,9 C 2,8 C 11,3 km/h (2 Bft) 96,43 %
10.11.2016 08:36 3,6 C 95 % 1007,0 hPa 0,0 l/m 8,4 km/h (2 Bft) SW 232 0 min 0,000 mm 0,0 UV-I 50 W/m 2,9 C 1,8 C 14,5 km/h (3 Bft) 97,37 %
10.11.2016 08:38 3,8 C 95 % 1007,0 hPa 0,0 l/m 10,1 km/h (2 Bft) S-SW 209 0 min 0,000 mm 0,0 UV-I 44 W/m 3,1 C 0,7 C 14,5 km/h (3 Bft) 100,00 %
10.11.2016 08:40 3,9 C 95 % 1007,1 hPa 0,0 l/m 8,4 km/h (2 Bft) SW 225 0 min 0,000 mm 0,0 UV-I 38 W/m 3,2 C 2,1 C 11,3 km/h (2 Bft) 100,00 %
10.11.2016 08:42 3,9 C 94 % 1007,2 hPa 0,0 l/m 8,7 km/h (2 Bft) W-SW 243 0 min 0,000 mm 0,0 UV-I 37 W/m 3,0 C 1,9 C 12,9 km/h (3 Bft) 100,00 %
10.11.2016 08:44 4,1 C 94 % 1007,1 hPa 0,0 l/m 9,2 km/h (2 Bft) W-SW 238 0 min 0,000 mm 0,0 UV-I 37 W/m 3,2 C 1,7 C 16,1 km/h (3 Bft) 98,00 %
10.11.2016 08:46 4,2 C 94 % 1007,3 hPa 0,0 l/m 10,6 km/h (2 Bft) SW 224 0 min 0,000 mm 0,0 UV-I 35 W/m 3,3 C 0,8 C 16,1 km/h (3 Bft) 100,00 %
10.11.2016 08:48 4,2 C 93 % 1007,3 hPa 0,0 l/m 10,6 km/h (2 Bft) S-SW 212 0 min 0,000 mm 0,0 UV-I 31 W/m 3,2 C 0,8 C 16,1 km/h (3 Bft) 100,00 %
10.11.2016 08:50 4,3 C 93 % 1007,3 hPa 0,0 l/m 13,5 km/h (3 Bft) SW 231 0 min 0,000 mm 0,0 UV-I 28 W/m 3,3 C -0,9 C 20,9 km/h (4 Bft) 97,56 %
10.11.2016 08:52 4,4 C 92 % 1007,3 hPa 0,2 l/m 13,8 km/h (3 Bft) W-SW 238 0 min 0,000 mm 0,0 UV-I 36 W/m 3,2 C -1,0 C 19,3 km/h (3 Bft) 100,00 %
10.11.2016 08:54 4,6 C 92 % 1007,3 hPa 0,0 l/m 12,8 km/h (3 Bft) SW 234 0 min 0,000 mm 0,0 UV-I 39 W/m 3,4 C -0,2 C 19,3 km/h (3 Bft) 100,00 %
10.11.2016 08:56 4,7 C 92 % 1007,4 hPa 0,0 l/m 11,9 km/h (2 Bft) W 263 0 min 0,000 mm 0,0 UV-I 47 W/m 3,5 C 0,5 C 19,3 km/h (3 Bft) 100,00 %
10.11.2016 08:58 4,7 C 92 % 1007,4 hPa 0,0 l/m 15,1 km/h (3 Bft) W-SW 241 0 min 0,000 mm 0,0 UV-I 49 W/m 3,5 C -1,3 C 20,9 km/h (4 Bft) 97,87 %
10.11.2016 09:00 4,8 C 91 % 1007,5 hPa 0,0 l/m 13,1 km/h (3 Bft) SW 236 0 min 0,025 mm 0,0 UV-I 34 W/m 3,5 C -0,1 C 17,7 km/h (3 Bft) 100,00 %
10.11.2016 09:03 4,8 C 92 % 1007,6 hPa 0,0 l/m 14,1 km/h (3 Bft) W 259 0 min 0,000 mm 0,0 UV-I 23 W/m 3,6 C -0,7 C 29,0 km/h (5 Bft) 100,00 %
10.11.2016 09:04 4,8 C 92 % 1007,6 hPa 0,0 l/m 15,6 km/h (3 Bft) W-SW 258 0 min 0,000 mm 0,0 UV-I 24 W/m 3,6 C -1,5 C 20,9 km/h (4 Bft) 100,00 %
10.11.2016 09:06 4,8 C 92 % 1007,6 hPa 0,2 l/m 18,4 km/h (3 Bft) W 271 0 min 0,000 mm 0,0 UV-I 31 W/m 3,6 C -2,8 C 27,4 km/h (4 Bft) 100,00 %
10.11.2016 09:09 4,8 C 92 % 1007,8 hPa 0,0 l/m 17,2 km/h (3 Bft) W 269 0 min 0,000 mm 0,0 UV-I 38 W/m 3,6 C -2,2 C 25,7 km/h (4 Bft) 100,00 %
10.11.2016 09:10 4,8 C 92 % 1007,8 hPa 0,2 l/m 23,9 km/h (4 Bft) W-SW 257 0 min 0,000 mm 0,0 UV-I 39 W/m 3,6 C -4,9 C 32,2 km/h (5 Bft) 100,00 %
10.11.2016 09:12 4,8 C 92 % 1007,8 hPa 0,0 l/m 17,3 km/h (3 Bft) W 265 0 min 0,000 mm 0,0 UV-I 36 W/m 3,6 C -2,3 C 24,1 km/h (4 Bft) 97,37 %
10.11.2016 09:14 4,8 C 93 % 1007,9 hPa 0,0 l/m 17,8 km/h (3 Bft) W-SW 246 0 min 0,000 mm 0,0 UV-I 35 W/m 3,8 C -2,5 C 24,1 km/h (4 Bft) 100,00 %
10.11.2016 09:16 4,7 C 93 % 1007,9 hPa 0,2 l/m 16,8 km/h (3 Bft) W-SW 258 0 min 0,000 mm 0,0 UV-I 45 W/m 3,7 C -2,2 C 22,5 km/h (4 Bft) 100,00 %
10.11.2016 09:18 4,7 C 93 % 1008,0 hPa 0,0 l/m 19,4 km/h (3 Bft) W-SW 248 0 min 0,000 mm 0,0 UV-I 43 W/m 3,7 C -3,3 C 33,8 km/h (5 Bft) 98,11 %
10.11.2016 09:20 4,7 C 93 % 1008,0 hPa 0,2 l/m 16,3 km/h (3 Bft) W 264 0 min 0,000 mm 0,0 UV-I 34 W/m 3,7 C -1,9 C 27,4 km/h (4 Bft) 100,00 %
10.11.2016 09:22 4,7 C 93 % 1008,0 hPa 0,2 l/m 22,2 km/h (4 Bft) SW 236 0 min 0,000 mm 0,0 UV-I 32 W/m 3,7 C -4,4 C 40,2 km/h (6 Bft) 100,00 %
10.11.2016 09:24 4,6 C 93 % 1008,0 hPa 0,2 l/m 15,9 km/h (3 Bft) W-SW 248 0 min 0,000 mm 0,0 UV-I 33 W/m 3,6 C -1,9 C 25,7 km/h (4 Bft) 98,11 %
10.11.2016 09:26 4,6 C 93 % 1008,0 hPa 0,0 l/m 20,7 km/h (4 Bft) W-SW 254 0 min 0,000 mm 0,0 UV-I 44 W/m 3,6 C -4,0 C 35,4 km/h (5 Bft) 100,00 %
10.11.2016 09:28 4,5 C 93 % 1007,9 hPa 0,0 l/m 17,4 km/h (3 Bft) W 261 0 min 0,000 mm 0,0 UV-I 66 W/m 3,5 C -2,7 C 27,4 km/h (4 Bft) 100,00 %
10.11.2016 09:30 4,5 C 93 % 1007,9 hPa 0,0 l/m 16,8 km/h (3 Bft) W-SW 252 0 min 0,000 mm 0,0 UV-I 90 W/m 3,5 C -2,4 C 27,4 km/h (4 Bft) 98,18 %
10.11.2016 09:32 4,5 C 93 % 1007,9 hPa 0,0 l/m 18,5 km/h (3 Bft) SW 230 0 min 0,000 mm 0,0 UV-I 110 W/m 3,5 C -3,2 C 25,7 km/h (4 Bft) 97,87 %
10.11.2016 09:34 4,5 C 93 % 1008,0 hPa 0,0 l/m 14,2 km/h (3 Bft) W-SW 241 0 min 0,000 mm 0,0 UV-I 135 W/m 3,5 C -1,1 C 27,4 km/h (4 Bft) 95,83 %
10.11.2016 09:36 4,6 C 93 % 1008,0 hPa 0,0 l/m 23,0 km/h (4 Bft) S-SW 202 0 min 0,000 mm 0,0 UV-I 145 W/m 3,6 C -4,8 C 33,8 km/h (5 Bft) 100,00 %
10.11.2016 09:38 4,6 C 93 % 1008,1 hPa 0,0 l/m 19,1 km/h (3 Bft) W-SW 238 0 min 0,000 mm 0,0 UV-I 153 W/m 3,6 C -3,3 C 30,6 km/h (5 Bft) 97,62 %
10.11.2016 09:40 4,7 C 93 % 1008,0 hPa 0,0 l/m 15,4 km/h (3 Bft) SW 235 0 min 0,000 mm 0,0 UV-I 158 W/m 3,7 C -1,5 C 20,9 km/h (4 Bft) 100,00 %
10.11.2016 09:42 4,7 C 93 % 1007,9 hPa 0,0 l/m 21,9 km/h (4 Bft) SW 228 0 min 0,000 mm 0,0 UV-I 171 W/m 3,7 C -4,3 C 30,6 km/h (5 Bft) 100,00 %
10.11.2016 09:44 4,8 C 93 % 1008,0 hPa 0,0 l/m 17,1 km/h (3 Bft) SW 235 2 min 0,000 mm 0,0 UV-I 200 W/m 3,8 C -2,2 C 24,1 km/h (4 Bft) 100,00 %
10.11.2016 09:46 4,8 C 93 % 1008,1 hPa 0,0 l/m 14,4 km/h (3 Bft) W-SW 244 2 min 0,000 mm 0,0 UV-I 208 W/m 3,8 C -0,9 C 29,0 km/h (5 Bft) 97,87 %
10.11.2016 09:48 4,8 C 93 % 1008,0 hPa 0,0 l/m 18,2 km/h (3 Bft) S-SW 196 2 min 0,000 mm 0,0 UV-I 197 W/m 3,8 C -2,7 C 30,6 km/h (5 Bft) 97,30 %
10.11.2016 09:50 4,8 C 92 % 1008,0 hPa 0,0 l/m 15,4 km/h (3 Bft) W-SW 255 2 min 0,000 mm 0,0 UV-I 188 W/m 3,6 C -1,4 C 27,4 km/h (4 Bft) 97,96 %
10.11.2016 09:52 4,9 C 93 % 1008,1 hPa 0,0 l/m 13,4 km/h (3 Bft) SW 232 0 min 0,000 mm 0,0 UV-I 181 W/m 3,9 C -0,2 C 24,1 km/h (4 Bft) 100,00 %
10.11.2016 09:54 4,9 C 92 % 1008,1 hPa 0,0 l/m 16,8 km/h (3 Bft) W-SW 239 0 min 0,000 mm 0,0 UV-I 165 W/m 3,7 C -1,9 C 25,7 km/h (4 Bft) 100,00 %
10.11.2016 09:56 4,9 C 92 % 1008,1 hPa 0,0 l/m 19,7 km/h (3 Bft) S-SW 198 0 min 0,000 mm 0,2 UV-I 149 W/m 3,7 C -3,2 C 33,8 km/h (5 Bft) 100,00 %
10.11.2016 09:58 4,8 C 92 % 1008,1 hPa 0,0 l/m 19,2 km/h (3 Bft) W-SW 240 0 min 0,000 mm 0,5 UV-I 176 W/m 3,6 C -3,1 C 33,8 km/h (5 Bft) 98,51 %
10.11.2016 10:00 4,9 C 92 % 1008,1 hPa 0,0 l/m 15,1 km/h (3 Bft) SW 215 2 min 0,051 mm 0,5 UV-I 218 W/m 3,7 C -1,1 C 25,7 km/h (4 Bft) 100,00 %
10.11.2016 10:02 4,9 C 93 % 1008,2 hPa 0,0 l/m 15,9 km/h (3 Bft) S-SW 200 2 min 0,000 mm 0,5 UV-I 198 W/m 3,9 C -1,5 C 24,1 km/h (4 Bft) 100,00 %
10.11.2016 10:04 4,9 C 92 % 1008,2 hPa 0,0 l/m 16,3 km/h (3 Bft) W-SW 249 0 min 0,000 mm 0,5 UV-I 163 W/m 3,7 C -1,7 C 25,7 km/h (4 Bft) 100,00 %
10.11.2016 10:06 5,0 C 92 % 1008,3 hPa 0,0 l/m 16,3 km/h (3 Bft) W-SW 239 0 min 0,000 mm 0,5 UV-I 151 W/m 3,8 C -1,6 C 25,7 km/h (4 Bft) 100,00 %
10.11.2016 10:08 5,0 C 92 % 1008,2 hPa 0,0 l/m 16,0 km/h (3 Bft) W-SW 245 0 min 0,000 mm 0,5 UV-I 162 W/m 3,8 C -1,4 C 22,5 km/h (4 Bft) 97,96 %
10.11.2016 10:10 5,0 C 92 % 1008,2 hPa 0,0 l/m 19,7 km/h (3 Bft) W-SW 239 0 min 0,000 mm 0,6 UV-I 168 W/m 3,8 C -3,1 C 29,0 km/h (5 Bft) 98,11 %
10.11.2016 10:12 5,0 C 91 % 1008,3 hPa 0,0 l/m 19,0 km/h (3 Bft) SW 220 2 min 0,000 mm 0,6 UV-I 224 W/m 3,7 C -2,8 C 32,2 km/h (5 Bft) 89,19 %
10.11.2016 10:14 5,1 C 92 % 1008,3 hPa 0,0 l/m 14,0 km/h (3 Bft) W 279 2 min 0,000 mm 0,6 UV-I 273 W/m 3,9 C -0,3 C 20,9 km/h (4 Bft) 97,92 %
10.11.2016 10:16 5,1 C 92 % 1008,3 hPa 0,0 l/m 17,9 km/h (3 Bft) S-SW 202 2 min 0,000 mm 0,6 UV-I 252 W/m 3,9 C -2,2 C 35,4 km/h (5 Bft) 97,87 %
10.11.2016 10:18 5,2 C 91 % 1008,3 hPa 0,0 l/m 21,2 km/h (4 Bft) SO 145 2 min 0,000 mm 0,6 UV-I 260 W/m 3,9 C -3,4 C 37,0 km/h (5 Bft) 95,74 %
10.11.2016 10:20 5,3 C 91 % 1008,3 hPa 0,0 l/m 18,3 km/h (3 Bft) W 259 2 min 0,000 mm 0,6 UV-I 282 W/m 4,0 C -2,1 C 30,6 km/h (5 Bft) 97,87 %
10.11.2016 10:22 5,4 C 91 % 1008,4 hPa 0,0 l/m 20,0 km/h (4 Bft) S-SW 194 2 min 0,000 mm 0,6 UV-I 257 W/m 4,1 C -2,7 C 32,2 km/h (5 Bft) 95,74 %
10.11.2016 10:24 5,4 C 90 % 1008,3 hPa 0,0 l/m 20,3 km/h (4 Bft) W-SW 254 2 min 0,000 mm 0,7 UV-I 239 W/m 3,9 C -2,8 C 27,4 km/h (4 Bft) 97,87 %
10.11.2016 10:26 5,6 C 90 % 1008,3 hPa 0,0 l/m 18,0 km/h (3 Bft) W-SW 254 2 min 0,000 mm 0,8 UV-I 400 W/m 4,1 C -1,6 C 27,4 km/h (4 Bft) 97,87 %
10.11.2016 10:28 5,7 C 90 % 1008,3 hPa 0,0 l/m 18,4 km/h (3 Bft) S-SW 207 2 min 0,000 mm 0,8 UV-I 433 W/m 4,2 C -1,6 C 30,6 km/h (5 Bft) 96,00 %
10.11.2016 10:30 5,8 C 90 % 1008,4 hPa 0,0 l/m 13,0 km/h (3 Bft) W-SW 245 2 min 0,000 mm 0,6 UV-I 399 W/m 4,3 C 1,1 C 25,7 km/h (4 Bft) 96,00 %
10.11.2016 10:32 5,9 C 91 % 1008,4 hPa 0,0 l/m 13,7 km/h (3 Bft) SW 233 2 min 0,000 mm 0,7 UV-I 366 W/m 4,5 C 0,8 C 22,5 km/h (4 Bft) 95,74 %
10.11.2016 10:34 6,1 C 90 % 1008,3 hPa 0,0 l/m 19,5 km/h (3 Bft) SW 216 2 min 0,000 mm 0,8 UV-I 515 W/m 4,6 C -1,6 C 30,6 km/h (5 Bft) 97,87 %
10.11.2016 10:36 6,1 C 89 % 1008,4 hPa 0,0 l/m 21,1 km/h (4 Bft) SW 218 2 min 0,000 mm 0,8 UV-I 450 W/m 4,4 C -2,2 C 33,8 km/h (5 Bft) 95,74 %
10.11.2016 10:38 6,2 C 89 % 1008,4 hPa 0,0 l/m 13,2 km/h (3 Bft) W-SW 240 2 min 0,000 mm 0,8 UV-I 487 W/m 4,5 C 1,5 C 24,1 km/h (4 Bft) 95,74 %
10.11.2016 10:40 6,2 C 89 % 1008,4 hPa 0,0 l/m 19,1 km/h (3 Bft) SW 229 2 min 0,000 mm 0,7 UV-I 366 W/m 4,5 C -1,3 C 24,1 km/h (4 Bft) 97,37 %
10.11.2016 10:42 6,2 C 88 % 1008,4 hPa 0,0 l/m 19,0 km/h (3 Bft) W-SW 240 2 min 0,000 mm 0,7 UV-I 305 W/m 4,4 C -1,2 C 27,4 km/h (4 Bft) 100,00 %
10.11.2016 10:44 6,2 C 89 % 1008,4 hPa 0,0 l/m 14,6 km/h (3 Bft) SW 226 2 min 0,000 mm 0,7 UV-I 276 W/m 4,5 C 0,7 C 22,5 km/h (4 Bft) 100,00 %
10.11.2016 10:46 6,2 C 89 % 1008,4 hPa 0,0 l/m 12,3 km/h (3 Bft) SW 222 2 min 0,000 mm 0,7 UV-I 239 W/m 4,5 C 2,0 C 24,1 km/h (4 Bft) 98,00 %
10.11.2016 10:48 6,2 C 89 % 1008,5 hPa 0,0 l/m 15,7 km/h (3 Bft) S-SW 212 0 min 0,000 mm 0,6 UV-I 216 W/m 4,5 C 0,2 C 25,7 km/h (4 Bft) 100,00 %
10.11.2016 10:50 6,2 C 89 % 1008,5 hPa 0,0 l/m 13,8 km/h (3 Bft) W-SW 255 0 min 0,000 mm 0,6 UV-I 202 W/m 4,5 C 1,1 C 24,1 km/h (4 Bft) 95,74 %
10.11.2016 10:52 6,1 C 89 % 1008,5 hPa 0,0 l/m 16,8 km/h (3 Bft) SW 215 0 min 0,000 mm 0,5 UV-I 211 W/m 4,4 C -0,4 C 24,1 km/h (4 Bft) 97,87 %
10.11.2016 10:54 6,1 C 89 % 1008,5 hPa 0,0 l/m 17,7 km/h (3 Bft) SW 219 0 min 0,000 mm 0,5 UV-I 219 W/m 4,4 C -0,8 C 27,4 km/h (4 Bft) 100,00 %
10.11.2016 10:56 6,1 C 89 % 1008,5 hPa 0,0 l/m 14,2 km/h (3 Bft) W-SW 248 0 min 0,000 mm 0,5 UV-I 189 W/m 4,4 C 0,8 C 20,9 km/h (4 Bft) 95,74 %
10.11.2016 10:58 6,2 C 89 % 1008,5 hPa 0,0 l/m 12,6 km/h (3 Bft) W-SW 246 0 min 0,000 mm 0,5 UV-I 182 W/m 4,5 C 1,8 C 25,7 km/h (4 Bft) 100,00 %
10.11.2016 11:00 6,2 C 89 % 1008,5 hPa 0,0 l/m 15,4 km/h (3 Bft) W-SW 248 0 min 0,000 mm 0,6 UV-I 164 W/m 4,5 C 0,3 C 24,1 km/h (4 Bft) 100,00 %
10.11.2016 11:02 6,2 C 89 % 1008,5 hPa 0,0 l/m 13,9 km/h (3 Bft) W-SW 240 0 min 0,127 mm 0,6 UV-I 167 W/m 4,5 C 1,1 C 22,5 km/h (4 Bft) 100,00 %
10.11.2016 11:04 6,2 C 89 % 1008,4 hPa 0,0 l/m 14,8 km/h (3 Bft) W-SW 242 0 min 0,000 mm 0,6 UV-I 166 W/m 4,5 C 0,6 C 24,1 km/h (4 Bft) 97,87 %
10.11.2016 11:06 6,2 C 88 % 1008,3 hPa 0,0 l/m 13,4 km/h (3 Bft) W-SW 241 0 min 0,000 mm 0,8 UV-I 169 W/m 4,4 C 1,4 C 19,3 km/h (3 Bft) 100,00 %
10.11.2016 11:08 6,3 C 88 % 1008,3 hPa 0,0 l/m 17,2 km/h (3 Bft) W-SW 242 2 min 0,000 mm 0,9 UV-I 261 W/m 4,5 C -0,4 C 27,4 km/h (4 Bft) 100,00 %
10.11.2016 11:10 6,5 C 88 % 1008,3 hPa 0,0 l/m 15,4 km/h (3 Bft) W-SW 239 2 min 0,000 mm 0,9 UV-I 442 W/m 4,7 C 0,7 C 20,9 km/h (4 Bft) 97,14 %
10.11.2016 11:12 6,7 C 88 % 1008,2 hPa 0,0 l/m 10,9 km/h (2 Bft) W-SW 250 2 min 0,000 mm 1,0 UV-I 447 W/m 4,9 C 3,4 C 17,7 km/h (3 Bft) 100,00 %
10.11.2016 11:14 6,8 C 87 % 1008,1 hPa 0,0 l/m 16,4 km/h (3 Bft) W-SW 238 2 min 0,000 mm 1,0 UV-I 461 W/m 4,8 C 0,6 C 24,1 km/h (4 Bft) 100,00 %
10.11.2016 11:16 6,9 C 86 % 1008,0 hPa 0,0 l/m 18,4 km/h (3 Bft) W-SW 244 2 min 0,000 mm 0,9 UV-I 443 W/m 4,7 C -0,1 C 25,7 km/h (4 Bft) 100,00 %
10.11.2016 11:18 7,1 C 86 % 1008,1 hPa 0,0 l/m 16,4 km/h (3 Bft) W 263 2 min 0,000 mm 1,0 UV-I 457 W/m 4,9 C 1,0 C 27,4 km/h (4 Bft) 100,00 %
10.11.2016 11:20 7,2 C 86 % 1007,9 hPa 0,0 l/m 18,9 km/h (3 Bft) SW 214 2 min 0,000 mm 1,0 UV-I 453 W/m 5,0 C 0,1 C 30,6 km/h (5 Bft) 100,00 %
10.11.2016 11:22 7,2 C 84 % 1007,9 hPa 0,0 l/m 25,5 km/h (4 Bft) S-SW 213 2 min 0,000 mm 1,0 UV-I 455 W/m 4,7 C -2,1 C 35,4 km/h (5 Bft) 95,74 %
10.11.2016 11:24 7,3 C 84 % 1007,9 hPa 0,0 l/m 24,1 km/h (4 Bft) S-SW 209 2 min 0,000 mm 1,0 UV-I 477 W/m 4,8 C -1,6 C 45,1 km/h (6 Bft) 97,87 %
10.11.2016 11:26 7,3 C 83 % 1008,0 hPa 0,0 l/m 24,4 km/h (4 Bft) W 260 2 min 0,000 mm 1,0 UV-I 473 W/m 4,6 C -1,6 C 38,6 km/h (5 Bft) 100,00 %
10.11.2016 11:28 7,4 C 83 % 1007,9 hPa 0,0 l/m 20,5 km/h (4 Bft) W 263 2 min 0,000 mm 1,0 UV-I 456 W/m 4,7 C -0,3 C 29,0 km/h (5 Bft) 100,00 %
10.11.2016 11:30 7,4 C 82 % 1007,8 hPa 0,0 l/m 29,5 km/h (5 Bft) W-SW 241 2 min 0,000 mm 1,0 UV-I 428 W/m 4,5 C -2,9 C 48,3 km/h (6 Bft) 100,00 %
10.11.2016 11:32 7,4 C 81 % 1007,8 hPa 0,0 l/m 29,0 km/h (5 Bft) W-SW 239 2 min 0,000 mm 1,0 UV-I 465 W/m 4,4 C -2,8 C 43,5 km/h (6 Bft) 96,00 %
10.11.2016 11:34 7,4 C 81 % 1007,8 hPa 0,0 l/m 25,9 km/h (4 Bft) W-SW 237 0 min 0,000 mm 0,9 UV-I 220 W/m 4,4 C -1,9 C 35,4 km/h (5 Bft) 100,00 %
10.11.2016 11:36 7,4 C 81 % 1007,8 hPa 0,0 l/m 27,3 km/h (4 Bft) SW 230 2 min 0,000 mm 1,0 UV-I 460 W/m 4,4 C -2,3 C 46,7 km/h (6 Bft) 100,00 %
10.11.2016 11:38 7,4 C 81 % 1007,8 hPa 0,0 l/m 25,0 km/h (4 Bft) SW 232 2 min 0,000 mm 1,0 UV-I 465 W/m 4,4 C -1,7 C 37,0 km/h (5 Bft) 100,00 %
10.11.2016 11:40 7,6 C 82 % 1007,8 hPa 0,0 l/m 20,0 km/h (4 Bft) SW 223 2 min 0,000 mm 1,0 UV-I 476 W/m 4,7 C 0,2 C 37,0 km/h (5 Bft) 100,00 %
10.11.2016 11:42 7,7 C 81 % 1007,8 hPa 0,0 l/m 25,1 km/h (4 Bft) W-SW 254 2 min 0,000 mm 1,0 UV-I 492 W/m 4,7 C -1,3 C 33,8 km/h (5 Bft) 100,00 %
10.11.2016 11:44 7,8 C 81 % 1007,8 hPa 0,0 l/m 22,1 km/h (4 Bft) S 186 2 min 0,000 mm 1,0 UV-I 495 W/m 4,7 C -0,3 C 32,2 km/h (5 Bft) 100,00 %
10.11.2016 11:46 7,9 C 80 % 1007,8 hPa 0,0 l/m 25,3 km/h (4 Bft) W-SW 238 2 min 0,000 mm 1,1 UV-I 502 W/m 4,7 C -1,1 C 37,0 km/h (5 Bft) 93,62 %
10.11.2016 11:48 8,0 C 79 % 1007,7 hPa 0,0 l/m 26,8 km/h (4 Bft) SW 230 2 min 0,000 mm 1,1 UV-I 522 W/m 4,6 C -1,4 C 43,5 km/h (6 Bft) 96,61 %
10.11.2016 11:50 8,0 C 79 % 1007,7 hPa 0,0 l/m 23,4 km/h (4 Bft) S 185 2 min 0,000 mm 0,9 UV-I 532 W/m 4,6 C -0,4 C 32,2 km/h (5 Bft) 97,37 %
10.11.2016 11:52 8,0 C 78 % 1007,6 hPa 0,0 l/m 28,7 km/h (4 Bft) W 261 2 min 0,000 mm 0,8 UV-I 281 W/m 4,4 C -1,8 C 46,7 km/h (6 Bft) 95,74 %
10.11.2016 11:54 7,8 C 77 % 1007,7 hPa 0,0 l/m 22,6 km/h (4 Bft) W-SW 252 2 min 0,000 mm 0,8 UV-I 271 W/m 4,0 C -0,4 C 35,4 km/h (5 Bft) 95,74 %
10.11.2016 11:56 7,8 C 78 % 1007,7 hPa 0,0 l/m 25,3 km/h (4 Bft) W-SW 238 2 min 0,000 mm 0,9 UV-I 271 W/m 4,2 C -1,2 C 37,0 km/h (5 Bft) 98,11 %
10.11.2016 11:58 7,8 C 79 % 1007,6 hPa 0,0 l/m 21,6 km/h (4 Bft) SW 222 2 min 0,000 mm 0,9 UV-I 298 W/m 4,4 C -0,1 C 29,0 km/h (5 Bft) 97,50 %
10.11.2016 12:00 7,7 C 78 % 1007,6 hPa 0,0 l/m 25,7 km/h (4 Bft) SW 216 2 min 0,203 mm 0,8 UV-I 245 W/m 4,1 C -1,5 C 41,8 km/h (6 Bft) 95,74 %
10.11.2016 12:02 7,7 C 77 % 1007,7 hPa 0,0 l/m 29,5 km/h (5 Bft) W-SW 237 0 min 0,000 mm 0,8 UV-I 224 W/m 3,9 C -2,5 C 43,5 km/h (6 Bft) 95,74 %
10.11.2016 12:04 7,6 C 78 % 1007,6 hPa 0,0 l/m 23,3 km/h (4 Bft) W-SW 251 2 min 0,000 mm 0,9 UV-I 244 W/m 4,0 C -0,9 C 35,4 km/h (5 Bft) 95,74 %
10.11.2016 12:06 7,6 C 78 % 1007,6 hPa 0,0 l/m 22,8 km/h (4 Bft) S-SW 200 2 min 0,000 mm 0,9 UV-I 287 W/m 4,0 C -0,8 C 33,8 km/h (5 Bft) 93,62 %
10.11.2016 12:08 7,7 C 78 % 1007,6 hPa 0,0 l/m 20,8 km/h (4 Bft) SW 215 2 min 0,000 mm 1,0 UV-I 376 W/m 4,1 C 0,0 C 33,8 km/h (5 Bft) 97,87 %
10.11.2016 12:10 7,8 C 79 % 1007,6 hPa 0,0 l/m 24,2 km/h (4 Bft) W-SW 246 2 min 0,000 mm 1,0 UV-I 447 W/m 4,4 C -0,9 C 30,6 km/h (5 Bft) 94,00 %
10.11.2016 12:12 7,9 C 78 % 1007,6 hPa 0,0 l/m 22,3 km/h (4 Bft) W-SW 238 2 min 0,000 mm 1,0 UV-I 448 W/m 4,3 C -0,2 C 41,8 km/h (6 Bft) 100,00 %
10.11.2016 12:14 7,9 C 78 % 1007,6 hPa 0,0 l/m 20,6 km/h (4 Bft) W-NW 296 2 min 0,000 mm 0,9 UV-I 455 W/m 4,3 C 0,4 C 33,8 km/h (5 Bft) 100,00 %
10.11.2016 12:16 8,1 C 78 % 1007,6 hPa 0,0 l/m 20,8 km/h (4 Bft) SW 214 2 min 0,000 mm 0,8 UV-I 375 W/m 4,5 C 0,6 C 33,8 km/h (5 Bft) 97,87 %
10.11.2016 12:18 8,1 C 76 % 1007,5 hPa 0,0 l/m 25,8 km/h (4 Bft) SW 227 2 min 0,000 mm 0,7 UV-I 245 W/m 4,1 C -1,0 C 35,4 km/h (5 Bft) 100,00 %
10.11.2016 12:20 8,0 C 77 % 1007,7 hPa 0,0 l/m 20,5 km/h (4 Bft) SW 226 0 min 0,000 mm 0,6 UV-I 203 W/m 4,2 C 0,5 C 29,0 km/h (5 Bft) 97,92 %
10.11.2016 12:22 7,9 C 77 % 1007,7 hPa 0,0 l/m 25,9 km/h (4 Bft) SW 226 0 min 0,000 mm 0,2 UV-I 156 W/m 4,1 C -1,3 C 43,5 km/h (6 Bft) 100,00 %
10.11.2016 12:24 7,9 C 78 % 1007,9 hPa 0,0 l/m 23,8 km/h (4 Bft) W 277 0 min 0,000 mm 0,0 UV-I 89 W/m 4,3 C -0,7 C 38,6 km/h (5 Bft) 100,00 %
10.11.2016 12:26 7,8 C 78 % 1008,0 hPa 0,0 l/m 14,4 km/h (3 Bft) SW 219 0 min 0,000 mm 0,0 UV-I 50 W/m 4,2 C 2,7 C 33,8 km/h (5 Bft) 98,00 %
10.11.2016 12:29 7,3 C 78 % 1008,3 hPa 0,0 l/m 23,0 km/h (4 Bft) W-NW 298 0 min 0,000 mm 0,0 UV-I 31 W/m 3,7 C -1,2 C 51,5 km/h (7 Bft) 97,14 %
10.11.2016 12:30 7,2 C 80 % 1008,3 hPa 0,0 l/m 29,4 km/h (5 Bft) W 269 0 min 0,000 mm 0,0 UV-I 22 W/m 4,0 C -3,1 C 61,2 km/h (7 Bft) 100,00 %
10.11.2016 12:32 6,6 C 82 % 1008,2 hPa 0,4 l/m 28,7 km/h (4 Bft) W 269 0 min 0,000 mm 0,0 UV-I 30 W/m 3,8 C -3,8 C 46,7 km/h (6 Bft) 100,00 %
10.11.2016 12:34 6,2 C 82 % 1008,4 hPa 0,0 l/m 31,3 km/h (5 Bft) W-SW 244 0 min 0,000 mm 0,0 UV-I 31 W/m 3,4 C -5,0 C 51,5 km/h (7 Bft) 100,00 %
10.11.2016 12:36 5,9 C 84 % 1008,2 hPa 0,2 l/m 28,7 km/h (4 Bft) W 262 0 min 0,000 mm 0,0 UV-I 28 W/m 3,4 C -4,8 C 33,8 km/h (5 Bft) 97,87 %
10.11.2016 12:38 5,7 C 85 % 1008,3 hPa 0,2 l/m 24,4 km/h (4 Bft) W-SW 247 0 min 0,000 mm 0,0 UV-I 23 W/m 3,4 C -3,8 C 40,2 km/h (6 Bft) 97,87 %
10.11.2016 12:40 5,5 C 87 % 1008,2 hPa 0,2 l/m 26,9 km/h (4 Bft) SW 220 0 min 0,000 mm 0,0 UV-I 28 W/m 3,5 C -4,8 C 43,5 km/h (6 Bft) 97,87 %
10.11.2016 12:42 5,3 C 88 % 1008,2 hPa 0,2 l/m 29,6 km/h (5 Bft) W 273 0 min 0,000 mm 0,0 UV-I 47 W/m 3,5 C -5,9 C 41,8 km/h (6 Bft) 100,00 %
10.11.2016 12:44 5,1 C 89 % 1008,3 hPa 0,0 l/m 25,8 km/h (4 Bft) W 259 0 min 0,000 mm 0,0 UV-I 121 W/m 3,4 C -5,1 C 40,2 km/h (6 Bft) 100,00 %
10.11.2016 12:46 4,9 C 90 % 1008,1 hPa 0,0 l/m 23,6 km/h (4 Bft) S-SW 202 0 min 0,000 mm 0,5 UV-I 156 W/m 3,4 C -4,6 C 35,4 km/h (5 Bft) 98,00 %
10.11.2016 12:48 4,9 C 91 % 1008,2 hPa 0,0 l/m 24,6 km/h (4 Bft) SW 236 0 min 0,000 mm 0,5 UV-I 162 W/m 3,6 C -5,0 C 41,8 km/h (6 Bft) 100,00 %
10.11.2016 12:50 4,9 C 91 % 1008,2 hPa 0,0 l/m 24,8 km/h (4 Bft) W-SW 246 0 min 0,000 mm 0,1 UV-I 150 W/m 3,6 C -5,0 C 33,8 km/h (5 Bft) 100,00 %
10.11.2016 12:52 5,0 C 91 % 1008,2 hPa 0,0 l/m 20,4 km/h (4 Bft) W-SW 256 0 min 0,000 mm 0,0 UV-I 138 W/m 3,7 C -3,3 C 30,6 km/h (5 Bft) 100,00 %
10.11.2016 12:54 5,1 C 92 % 1008,4 hPa 0,0 l/m 15,1 km/h (3 Bft) W-SW 240 0 min 0,000 mm 0,0 UV-I 116 W/m 3,9 C -0,9 C 25,7 km/h (4 Bft) 100,00 %
10.11.2016 12:56 5,1 C 92 % 1008,4 hPa 0,0 l/m 17,8 km/h (3 Bft) SW 231 0 min 0,000 mm 0,0 UV-I 96 W/m 3,9 C -2,1 C 27,4 km/h (4 Bft) 98,00 %
10.11.2016 12:58 5,1 C 92 % 1008,5 hPa 0,0 l/m 15,4 km/h (3 Bft) W-SW 240 0 min 0,000 mm 0,0 UV-I 104 W/m 3,9 C -1,0 C 22,5 km/h (4 Bft) 100,00 %
10.11.2016 13:00 5,1 C 92 % 1008,4 hPa 0,0 l/m 19,5 km/h (3 Bft) S 188 0 min 0,102 mm 0,0 UV-I 86 W/m 3,9 C -2,8 C 30,6 km/h (5 Bft) 100,00 %
10.11.2016 13:02 5,1 C 92 % 1008,5 hPa 0,0 l/m 18,2 km/h (3 Bft) W-SW 257 0 min 0,000 mm 0,0 UV-I 79 W/m 3,9 C -2,3 C 24,1 km/h (4 Bft) 100,00 %
10.11.2016 13:04 5,1 C 92 % 1008,5 hPa 0,2 l/m 17,1 km/h (3 Bft) W 263 0 min 0,000 mm 0,0 UV-I 64 W/m 3,9 C -1,8 C 27,4 km/h (4 Bft) 95,74 %
10.11.2016 13:06 5,1 C 92 % 1008,5 hPa 0,0 l/m 17,5 km/h (3 Bft) W 270 0 min 0,000 mm 0,0 UV-I 52 W/m 3,9 C -2,0 C 27,4 km/h (4 Bft) 100,00 %
10.11.2016 13:08 5,1 C 93 % 1008,5 hPa 0,0 l/m 17,9 km/h (3 Bft) W-SW 248 0 min 0,000 mm 0,0 UV-I 53 W/m 4,1 C -2,2 C 29,0 km/h (5 Bft) 100,00 %
10.11.2016 13:10 5,1 C 92 % 1008,5 hPa 0,0 l/m 14,8 km/h (3 Bft) W 264 0 min 0,000 mm 0,0 UV-I 46 W/m 3,9 C -0,7 C 19,3 km/h (3 Bft) 100,00 %
10.11.2016 13:12 5,1 C 93 % 1008,6 hPa 0,0 l/m 12,8 km/h (3 Bft) W 260 0 min 0,000 mm 0,0 UV-I 40 W/m 4,1 C 0,4 C 19,3 km/h (3 Bft) 97,87 %
10.11.2016 13:14 5,1 C 93 % 1008,6 hPa 0,2 l/m 10,1 km/h (2 Bft) W-SW 244 0 min 0,000 mm 0,0 UV-I 37 W/m 4,1 C 2,1 C 19,3 km/h (3 Bft) 100,00 %
10.11.2016 13:16 5,0 C 93 % 1008,7 hPa 0,0 l/m 11,0 km/h (2 Bft) W 271 0 min 0,000 mm 0,0 UV-I 31 W/m 4,0 C 1,4 C 19,3 km/h (3 Bft) 100,00 %
10.11.2016 13:18 4,9 C 94 % 1008,7 hPa 0,4 l/m 9,7 km/h (2 Bft) W-SW 250 0 min 0,000 mm 0,0 UV-I 48 W/m 4,0 C 2,2 C 16,1 km/h (3 Bft) 100,00 %
10.11.2016 13:20 4,9 C 94 % 1008,8 hPa 0,0 l/m 15,4 km/h (3 Bft) W-SW 257 0 min 0,000 mm 0,0 UV-I 71 W/m 4,0 C -1,2 C 24,1 km/h (4 Bft) 98,00 %
10.11.2016 13:22 4,9 C 93 % 1008,6 hPa 0,0 l/m 20,5 km/h (4 Bft) W-SW 244 0 min 0,000 mm 0,0 UV-I 78 W/m 3,9 C -3,5 C 32,2 km/h (5 Bft) 100,00 %
10.11.2016 13:24 4,8 C 93 % 1008,6 hPa 0,0 l/m 23,4 km/h (4 Bft) SW 230 0 min 0,000 mm 0,0 UV-I 68 W/m 3,8 C -4,7 C 35,4 km/h (5 Bft) 97,87 %
10.11.2016 13:26 4,9 C 92 % 1008,7 hPa 0,0 l/m 30,9 km/h (5 Bft) W 272 0 min 0,000 mm 0,0 UV-I 62 W/m 3,7 C -6,7 C 43,5 km/h (6 Bft) 100,00 %
10.11.2016 13:28 4,9 C 91 % 1008,6 hPa 0,2 l/m 28,6 km/h (4 Bft) W 263 0 min 0,000 mm 0,0 UV-I 58 W/m 3,6 C -6,1 C 45,1 km/h (6 Bft) 93,62 %
10.11.2016 13:30 4,9 C 91 % 1008,7 hPa 0,0 l/m 23,9 km/h (4 Bft) W 262 0 min 0,000 mm 0,0 UV-I 67 W/m 3,6 C -4,7 C 35,4 km/h (5 Bft) 100,00 %
10.11.2016 13:32 4,9 C 91 % 1008,7 hPa 0,0 l/m 27,7 km/h (4 Bft) W-SW 238 0 min 0,000 mm 0,0 UV-I 68 W/m 3,6 C -5,9 C 35,4 km/h (5 Bft) 100,00 %
10.11.2016 13:34 4,9 C 90 % 1008,7 hPa 0,0 l/m 23,9 km/h (4 Bft) S 191 0 min 0,000 mm 0,0 UV-I 60 W/m 3,4 C -4,7 C 33,8 km/h (5 Bft) 97,22 %
10.11.2016 13:36 4,9 C 91 % 1008,8 hPa 0,0 l/m 24,1 km/h (4 Bft) SW 229 0 min 0,000 mm 0,0 UV-I 65 W/m 3,6 C -4,8 C 37,0 km/h (5 Bft) 98,18 %
10.11.2016 13:38 4,9 C 91 % 1008,9 hPa 0,0 l/m 23,0 km/h (4 Bft) W 273 0 min 0,000 mm 0,0 UV-I 69 W/m 3,6 C -4,4 C 33,8 km/h (5 Bft) 97,87 %
10.11.2016 13:40 4,9 C 91 % 1008,9 hPa 0,0 l/m 23,3 km/h (4 Bft) SW 232 0 min 0,000 mm 0,0 UV-I 53 W/m 3,6 C -4,5 C 32,2 km/h (5 Bft) 98,00 %
10.11.2016 13:42 4,9 C 90 % 1009,0 hPa 0,0 l/m 25,4 km/h (4 Bft) W-SW 238 0 min 0,000 mm 0,0 UV-I 32 W/m 3,4 C -5,2 C 37,0 km/h (5 Bft) 97,87 %
10.11.2016 13:44 4,9 C 91 % 1009,1 hPa 0,0 l/m 19,9 km/h (4 Bft) S-SW 207 0 min 0,000 mm 0,0 UV-I 28 W/m 3,6 C -3,3 C 30,6 km/h (5 Bft) 95,74 %
10.11.2016 13:46 4,8 C 91 % 1009,1 hPa 0,0 l/m 18,0 km/h (3 Bft) S-SW 195 0 min 0,000 mm 0,0 UV-I 30 W/m 3,5 C -2,6 C 32,2 km/h (5 Bft) 95,74 %
10.11.2016 13:48 4,8 C 91 % 1009,1 hPa 0,0 l/m 21,7 km/h (4 Bft) SW 217 0 min 0,000 mm 0,0 UV-I 33 W/m 3,5 C -4,1 C 35,4 km/h (5 Bft) 93,62 %
10.11.2016 13:50 4,7 C 91 % 1009,2 hPa 0,0 l/m 22,7 km/h (4 Bft) W-SW 252 0 min 0,000 mm 0,0 UV-I 48 W/m 3,4 C -4,6 C 32,2 km/h (5 Bft) 97,37 %
10.11.2016 13:52 4,7 C 92 % 1009,2 hPa 0,0 l/m 19,8 km/h (3 Bft) W-SW 255 0 min 0,000 mm 0,0 UV-I 64 W/m 3,5 C -3,5 C 30,6 km/h (5 Bft) 96,00 %
10.11.2016 13:54 4,7 C 92 % 1009,1 hPa 0,0 l/m 17,4 km/h (3 Bft) SW 216 0 min 0,000 mm 0,0 UV-I 67 W/m 3,5 C -2,5 C 27,4 km/h (4 Bft) 96,00 %
10.11.2016 13:56 4,6 C 92 % 1009,1 hPa 0,0 l/m 19,9 km/h (4 Bft) SW 217 0 min 0,000 mm 0,0 UV-I 68 W/m 3,4 C -3,6 C 30,6 km/h (5 Bft) 95,74 %
10.11.2016 13:58 4,6 C 92 % 1009,1 hPa 0,2 l/m 19,2 km/h (3 Bft) SW 220 0 min 0,000 mm 0,0 UV-I 68 W/m 3,4 C -3,4 C 27,4 km/h (4 Bft) 97,87 %
10.11.2016 14:00 4,6 C 92 % 1009,2 hPa 0,0 l/m 17,2 km/h (3 Bft) W-SW 238 0 min 0,000 mm 0,0 UV-I 71 W/m 3,4 C -2,5 C 27,4 km/h (4 Bft) 97,87 %
10.11.2016 14:02 4,6 C 92 % 1009,1 hPa 0,0 l/m 20,3 km/h (4 Bft) W-SW 250 0 min 0,025 mm 0,0 UV-I 77 W/m 3,4 C -3,8 C 30,6 km/h (5 Bft) 97,87 %
10.11.2016 14:04 4,6 C 92 % 1009,1 hPa 0,0 l/m 22,9 km/h (4 Bft) SW 221 0 min 0,000 mm 0,0 UV-I 77 W/m 3,4 C -4,8 C 33,8 km/h (5 Bft) 97,87 %
10.11.2016 14:06 4,6 C 92 % 1009,1 hPa 0,0 l/m 19,8 km/h (3 Bft) W-SW 254 0 min 0,000 mm 0,0 UV-I 77 W/m 3,4 C -3,6 C 29,0 km/h (5 Bft) 97,56 %
10.11.2016 14:08 4,7 C 92 % 1009,2 hPa 0,0 l/m 18,3 km/h (3 Bft) SW 221 0 min 0,000 mm 0,0 UV-I 79 W/m 3,5 C -2,9 C 27,4 km/h (4 Bft) 95,74 %
10.11.2016 14:10 4,7 C 92 % 1009,2 hPa 0,0 l/m 17,5 km/h (3 Bft) W-SW 239 0 min 0,000 mm 0,0 UV-I 84 W/m 3,5 C -2,5 C 24,1 km/h (4 Bft) 100,00 %
10.11.2016 14:12 4,7 C 92 % 1009,2 hPa 0,0 l/m 19,7 km/h (3 Bft) SW 236 0 min 0,000 mm 0,0 UV-I 87 W/m 3,5 C -3,4 C 29,0 km/h (5 Bft) 100,00 %
10.11.2016 14:14 4,7 C 92 % 1009,2 hPa 0,0 l/m 17,1 km/h (3 Bft) SW 235 0 min 0,000 mm 0,0 UV-I 85 W/m 3,5 C -2,3 C 29,0 km/h (5 Bft) 100,00 %
10.11.2016 14:16 4,7 C 92 % 1009,2 hPa 0,0 l/m 19,5 km/h (3 Bft) S-SW 209 0 min 0,000 mm 0,0 UV-I 90 W/m 3,5 C -3,4 C 27,4 km/h (4 Bft) 95,74 %
10.11.2016 14:18 4,7 C 92 % 1009,2 hPa 0,0 l/m 23,1 km/h (4 Bft) W-SW 258 0 min 0,000 mm 0,0 UV-I 93 W/m 3,5 C -4,7 C 33,8 km/h (5 Bft) 100,00 %
10.11.2016 14:20 4,8 C 92 % 1009,3 hPa 0,0 l/m 16,2 km/h (3 Bft) W-SW 238 0 min 0,000 mm 0,0 UV-I 91 W/m 3,6 C -1,8 C 20,9 km/h (4 Bft) 100,00 %
10.11.2016 14:22 4,8 C 92 % 1009,2 hPa 0,0 l/m 14,3 km/h (3 Bft) SW 218 0 min 0,000 mm 0,0 UV-I 93 W/m 3,6 C -0,8 C 19,3 km/h (3 Bft) 100,00 %
10.11.2016 14:24 4,8 C 93 % 1009,3 hPa 0,0 l/m 13,9 km/h (3 Bft) SW 216 0 min 0,000 mm 0,0 UV-I 94 W/m 3,8 C -0,6 C 20,9 km/h (4 Bft) 97,87 %
10.11.2016 14:26 4,8 C 93 % 1009,2 hPa 0,0 l/m 15,8 km/h (3 Bft) W-SW 246 0 min 0,000 mm 0,0 UV-I 92 W/m 3,8 C -1,6 C 24,1 km/h (4 Bft) 97,14 %
10.11.2016 14:29 4,8 C 93 % 1009,2 hPa 0,0 l/m 12,4 km/h (3 Bft) SW 236 0 min 0,000 mm 0,0 UV-I 99 W/m 3,8 C 0,3 C 22,5 km/h (4 Bft) 100,00 %
10.11.2016 14:30 4,8 C 93 % 1009,2 hPa 0,0 l/m 9,2 km/h (2 Bft) SW 227 0 min 0,000 mm 0,0 UV-I 98 W/m 3,8 C 2,4 C 14,5 km/h (3 Bft) 100,00 %
10.11.2016 14:32 4,9 C 93 % 1009,2 hPa 0,0 l/m 10,4 km/h (2 Bft) SW 234 0 min 0,000 mm 0,0 UV-I 93 W/m 3,9 C 1,7 C 19,3 km/h (3 Bft) 97,87 %
10.11.2016 14:34 4,9 C 93 % 1009,2 hPa 0,0 l/m 13,0 km/h (3 Bft) W-SW 239 0 min 0,000 mm 0,0 UV-I 86 W/m 3,9 C 0,0 C 24,1 km/h (4 Bft) 100,00 %
10.11.2016 14:36 4,9 C 93 % 1009,3 hPa 0,0 l/m 13,5 km/h (3 Bft) SW 235 0 min 0,000 mm 0,0 UV-I 80 W/m 3,9 C -0,2 C 22,5 km/h (4 Bft) 100,00 %
10.11.2016 14:39 4,9 C 93 % 1009,4 hPa 0,0 l/m 15,4 km/h (3 Bft) SW 234 0 min 0,000 mm 0,0 UV-I 62 W/m 3,9 C -1,2 C 24,1 km/h (4 Bft) 100,00 %
10.11.2016 14:40 4,9 C 93 % 1009,4 hPa 0,0 l/m 11,6 km/h (2 Bft) W-SW 238 0 min 0,000 mm 0,0 UV-I 51 W/m 3,9 C 0,9 C 17,7 km/h (3 Bft) 100,00 %
10.11.2016 14:42 4,9 C 93 % 1009,3 hPa 0,0 l/m 13,8 km/h (3 Bft) SW 220 0 min 0,000 mm 0,0 UV-I 46 W/m 3,9 C -0,4 C 22,5 km/h (4 Bft) 100,00 %
10.11.2016 14:44 4,9 C 93 % 1009,4 hPa 0,0 l/m 16,6 km/h (3 Bft) W-SW 238 0 min 0,000 mm 0,0 UV-I 46 W/m 3,9 C -1,8 C 27,4 km/h (4 Bft) 100,00 %
10.11.2016 14:46 4,9 C 93 % 1009,4 hPa 0,0 l/m 12,1 km/h (2 Bft) W-SW 244 0 min 0,000 mm 0,0 UV-I 34 W/m 3,9 C 0,6 C 22,5 km/h (4 Bft) 97,92 %
10.11.2016 14:48 4,9 C 92 % 1009,5 hPa 0,0 l/m 11,3 km/h (2 Bft) W-SW 238 0 min 0,000 mm 0,0 UV-I 33 W/m 3,7 C 1,1 C 20,9 km/h (4 Bft) 100,00 %
10.11.2016 14:50 4,9 C 92 % 1009,5 hPa 0,0 l/m 10,6 km/h (2 Bft) SW 220 0 min 0,000 mm 0,0 UV-I 47 W/m 3,7 C 1,5 C 17,7 km/h (3 Bft) 100,00 %
10.11.2016 14:52 4,9 C 93 % 1009,6 hPa 0,0 l/m 10,8 km/h (2 Bft) W-SW 250 0 min 0,000 mm 0,0 UV-I 60 W/m 3,9 C 1,4 C 17,7 km/h (3 Bft) 100,00 %
10.11.2016 14:54 4,9 C 93 % 1009,5 hPa 0,0 l/m 6,2 km/h (2 Bft) SW 221 0 min 0,000 mm 0,0 UV-I 68 W/m 3,9 C 4,9 C 11,3 km/h (2 Bft) 100,00 %
10.11.2016 14:56 4,9 C 93 % 1009,5 hPa 0,0 l/m 8,7 km/h (2 Bft) SW 221 0 min 0,000 mm 0,0 UV-I 68 W/m 3,9 C 2,9 C 11,3 km/h (2 Bft) 100,00 %
10.11.2016 14:59 4,9 C 93 % 1009,5 hPa 0,0 l/m 8,2 km/h (2 Bft) W-SW 248 0 min 0,000 mm 0,0 UV-I 77 W/m 3,9 C 3,3 C 14,5 km/h (3 Bft) 95,71 %
10.11.2016 15:00 4,9 C 93 % 1009,5 hPa 0,0 l/m 6,2 km/h (2 Bft) SW 226 0 min 0,000 mm 0,0 UV-I 88 W/m 3,9 C 4,9 C 11,3 km/h (2 Bft) 95,83 %
10.11.2016 15:02 4,9 C 93 % 1009,5 hPa 0,0 l/m 10,6 km/h (2 Bft) SW 215 0 min 0,051 mm 0,0 UV-I 93 W/m 3,9 C 1,5 C 20,9 km/h (4 Bft) 97,87 %
10.11.2016 15:04 4,9 C 93 % 1009,5 hPa 0,0 l/m 11,1 km/h (2 Bft) SW 223 0 min 0,000 mm 0,0 UV-I 85 W/m 3,9 C 1,2 C 19,3 km/h (3 Bft) 100,00 %
10.11.2016 15:06 4,9 C 93 % 1009,5 hPa 0,0 l/m 11,3 km/h (2 Bft) W-SW 243 0 min 0,000 mm 0,0 UV-I 59 W/m 3,9 C 1,1 C 17,7 km/h (3 Bft) 100,00 %
10.11.2016 15:08 4,9 C 93 % 1009,5 hPa 0,0 l/m 8,1 km/h (2 Bft) W-SW 240 0 min 0,000 mm 0,0 UV-I 53 W/m 3,9 C 3,4 C 16,1 km/h (3 Bft) 100,00 %
10.11.2016 15:10 5,0 C 93 % 1009,5 hPa 0,0 l/m 6,7 km/h (2 Bft) SW 227 0 min 0,000 mm 0,0 UV-I 77 W/m 4,0 C 4,8 C 11,3 km/h (2 Bft) 100,00 %
10.11.2016 15:12 5,0 C 93 % 1009,5 hPa 0,0 l/m 8,4 km/h (2 Bft) S 188 0 min 0,000 mm 0,0 UV-I 86 W/m 4,0 C 3,3 C 14,5 km/h (3 Bft) 97,87 %
10.11.2016 15:14 5,0 C 93 % 1009,5 hPa 0,0 l/m 11,5 km/h (2 Bft) W-SW 240 0 min 0,000 mm 0,0 UV-I 86 W/m 4,0 C 1,1 C 16,1 km/h (3 Bft) 95,74 %
10.11.2016 15:16 5,1 C 93 % 1009,5 hPa 0,0 l/m 10,2 km/h (2 Bft) S-SW 213 0 min 0,000 mm 0,0 UV-I 81 W/m 4,1 C 2,0 C 14,5 km/h (3 Bft) 95,74 %
10.11.2016 15:18 5,1 C 93 % 1009,5 hPa 0,0 l/m 9,8 km/h (2 Bft) SW 220 0 min 0,000 mm 0,0 UV-I 68 W/m 4,1 C 2,3 C 14,5 km/h (3 Bft) 96,00 %
10.11.2016 15:20 5,1 C 93 % 1009,6 hPa 0,0 l/m 9,0 km/h (2 Bft) SW 215 0 min 0,000 mm 0,0 UV-I 55 W/m 4,1 C 2,9 C 14,5 km/h (3 Bft) 100,00 %
10.11.2016 15:22 5,1 C 93 % 1009,5 hPa 0,0 l/m 13,1 km/h (3 Bft) W-SW 238 0 min 0,000 mm 0,0 UV-I 46 W/m 4,1 C 0,2 C 19,3 km/h (3 Bft) 97,87 %
10.11.2016 15:24 5,2 C 92 % 1009,6 hPa 0,0 l/m 10,3 km/h (2 Bft) S-SW 202 0 min 0,000 mm 0,0 UV-I 39 W/m 4,0 C 2,1 C 17,7 km/h (3 Bft) 100,00 %
10.11.2016 15:26 5,2 C 92 % 1009,6 hPa 0,0 l/m 10,4 km/h (2 Bft) S-SW 201 0 min 0,000 mm 0,0 UV-I 33 W/m 4,0 C 2,0 C 16,1 km/h (3 Bft) 97,87 %
10.11.2016 15:29 5,2 C 92 % 1009,6 hPa 0,0 l/m 9,2 km/h (2 Bft) S-SW 207 0 min 0,000 mm 0,0 UV-I 32 W/m 4,0 C 2,9 C 16,1 km/h (3 Bft) 100,00 %
10.11.2016 15:30 5,2 C 92 % 1009,6 hPa 0,0 l/m 7,8 km/h (2 Bft) SW 228 0 min 0,000 mm 0,0 UV-I 35 W/m 4,0 C 4,0 C 12,9 km/h (3 Bft) 100,00 %
10.11.2016 15:32 5,2 C 92 % 1009,6 hPa 0,0 l/m 9,6 km/h (2 Bft) S-SW 213 0 min 0,000 mm 0,0 UV-I 39 W/m 4,0 C 2,6 C 14,5 km/h (3 Bft) 97,87 %
10.11.2016 15:34 5,2 C 92 % 1009,6 hPa 0,0 l/m 10,6 km/h (2 Bft) SW 231 0 min 0,000 mm 0,0 UV-I 40 W/m 4,0 C 1,9 C 14,5 km/h (3 Bft) 100,00 %
10.11.2016 15:36 5,2 C 92 % 1009,6 hPa 0,0 l/m 10,6 km/h (2 Bft) SW 227 0 min 0,000 mm 0,0 UV-I 39 W/m 4,0 C 1,9 C 17,7 km/h (3 Bft) 97,37 %
10.11.2016 15:39 5,2 C 93 % 1009,5 hPa 0,0 l/m 8,7 km/h (2 Bft) S-SW 213 0 min 0,000 mm 0,0 UV-I 39 W/m 4,2 C 3,3 C 16,1 km/h (3 Bft) 97,56 %
10.11.2016 15:40 5,2 C 93 % 1009,5 hPa 0,0 l/m 7,4 km/h (2 Bft) W-SW 237 0 min 0,000 mm 0,0 UV-I 39 W/m 4,2 C 4,3 C 11,3 km/h (2 Bft) 100,00 %
10.11.2016 15:42 5,3 C 93 % 1009,5 hPa 0,0 l/m 7,2 km/h (2 Bft) S-SW 211 0 min 0,000 mm 0,0 UV-I 40 W/m 4,3 C 4,6 C 12,9 km/h (3 Bft) 95,74 %
10.11.2016 15:44 5,3 C 93 % 1009,5 hPa 0,2 l/m 8,2 km/h (2 Bft) S-SW 202 0 min 0,000 mm 0,0 UV-I 41 W/m 4,3 C 3,8 C 14,5 km/h (3 Bft) 98,00 %
10.11.2016 15:46 5,3 C 93 % 1009,5 hPa 0,0 l/m 8,4 km/h (2 Bft) W-SW 248 0 min 0,000 mm 0,0 UV-I 36 W/m 4,3 C 3,6 C 14,5 km/h (3 Bft) 97,87 %
10.11.2016 15:49 5,3 C 93 % 1009,5 hPa 0,0 l/m 9,2 km/h (2 Bft) SW 225 0 min 0,000 mm 0,0 UV-I 25 W/m 4,3 C 3,0 C 16,1 km/h (3 Bft) 97,26 %
10.11.2016 15:50 5,3 C 93 % 1009,5 hPa 0,0 l/m 5,7 km/h (1 Bft) SW 215 0 min 0,000 mm 0,0 UV-I 19 W/m 4,3 C 5,3 C 9,7 km/h (2 Bft) 91,67 %
10.11.2016 15:52 5,3 C 93 % 1009,6 hPa 0,0 l/m 9,1 km/h (2 Bft) SW 225 0 min 0,000 mm 0,0 UV-I 17 W/m 4,3 C 3,1 C 12,9 km/h (3 Bft) 95,74 %
10.11.2016 15:54 5,3 C 93 % 1009,6 hPa 0,0 l/m 6,8 km/h (2 Bft) SW 230 0 min 0,000 mm 0,0 UV-I 17 W/m 4,3 C 5,0 C 12,9 km/h (3 Bft) 97,37 %
10.11.2016 15:56 5,3 C 93 % 1009,6 hPa 0,0 l/m 8,3 km/h (2 Bft) W-SW 258 0 min 0,000 mm 0,0 UV-I 17 W/m 4,3 C 3,7 C 11,3 km/h (2 Bft) 98,00 %
10.11.2016 15:59 5,3 C 93 % 1009,7 hPa 0,0 l/m 10,1 km/h (2 Bft) W-SW 241 0 min 0,000 mm 0,0 UV-I 16 W/m 4,3 C 2,3 C 16,1 km/h (3 Bft) 97,18 %
10.11.2016 16:00 5,3 C 93 % 1009,7 hPa 0,0 l/m 7,8 km/h (2 Bft) S-SW 210 0 min 0,000 mm 0,0 UV-I 13 W/m 4,3 C 4,1 C 11,3 km/h (2 Bft) 92,00 %
10.11.2016 16:04 5,3 C 93 % 1009,6 hPa 0,0 l/m 7,9 km/h (2 Bft) S 191 0 min 0,026 mm 0,0 UV-I 12 W/m 4,3 C 4,0 C 12,9 km/h (3 Bft) 97,87 %
10.11.2016 16:06 5,3 C 92 % 1009,5 hPa 0,0 l/m 6,5 km/h (2 Bft) S-SW 201 0 min 0,000 mm 0,0 UV-I 12 W/m 4,1 C 5,2 C 11,3 km/h (2 Bft) 97,87 %
10.11.2016 16:08 5,2 C 92 % 1009,5 hPa 0,0 l/m 5,8 km/h (2 Bft) S 173 0 min 0,000 mm 0,0 UV-I 12 W/m 4,0 C 5,2 C 11,3 km/h (2 Bft) 93,62 %
10.11.2016 16:10 5,2 C 92 % 1009,5 hPa 0,0 l/m 6,5 km/h (2 Bft) S-SW 207 0 min 0,000 mm 0,0 UV-I 11 W/m 4,0 C 5,1 C 11,3 km/h (2 Bft) 97,92 %
10.11.2016 16:12 5,2 C 92 % 1009,5 hPa 0,0 l/m 7,0 km/h (2 Bft) S-SW 211 0 min 0,000 mm 0,0 UV-I 8 W/m 4,0 C 4,7 C 14,5 km/h (3 Bft) 97,87 %
10.11.2016 16:14 5,2 C 92 % 1009,5 hPa 0,0 l/m 8,6 km/h (2 Bft) S-SW 203 0 min 0,000 mm 0,0 UV-I 7 W/m 4,0 C 3,3 C 12,9 km/h (3 Bft) 93,62 %
10.11.2016 16:16 5,2 C 92 % 1009,5 hPa 0,0 l/m 7,8 km/h (2 Bft) S-SW 208 0 min 0,000 mm 0,0 UV-I 7 W/m 4,0 C 4,0 C 14,5 km/h (3 Bft) 97,87 %
10.11.2016 16:18 5,2 C 92 % 1009,6 hPa 0,0 l/m 7,1 km/h (2 Bft) S-SW 211 0 min 0,000 mm 0,0 UV-I 6 W/m 4,0 C 4,6 C 11,3 km/h (2 Bft) 100,00 %
10.11.2016 16:20 5,1 C 92 % 1009,7 hPa 0,0 l/m 7,0 km/h (2 Bft) S-SW 205 0 min 0,000 mm 0,0 UV-I 5 W/m 3,9 C 4,6 C 11,3 km/h (2 Bft) 100,00 %
10.11.2016 16:22 5,2 C 92 % 1009,7 hPa 0,0 l/m 8,3 km/h (2 Bft) SW 215 0 min 0,000 mm 0,0 UV-I 5 W/m 4,0 C 3,6 C 11,3 km/h (2 Bft) 93,62 %
10.11.2016 16:24 5,1 C 92 % 1009,7 hPa 0,2 l/m 6,4 km/h (2 Bft) S-SW 211 0 min 0,000 mm 0,0 UV-I 3 W/m 3,9 C 5,1 C 9,7 km/h (2 Bft) 97,87 %
10.11.2016 16:26 5,1 C 92 % 1009,7 hPa 0,0 l/m 8,7 km/h (2 Bft) W-SW 246 0 min 0,000 mm 0,0 UV-I 5 W/m 3,9 C 3,1 C 12,9 km/h (3 Bft) 100,00 %
10.11.2016 16:29 5,1 C 92 % 1009,7 hPa 0,0 l/m 6,8 km/h (2 Bft) SW 229 0 min 0,000 mm 0,0 UV-I 5 W/m 3,9 C 4,8 C 9,7 km/h (2 Bft) 100,00 %
10.11.2016 16:30 5,1 C 92 % 1009,7 hPa 0,0 l/m 6,9 km/h (2 Bft) SW 231 0 min 0,000 mm 0,0 UV-I 2 W/m 3,9 C 4,7 C 14,5 km/h (3 Bft) 91,30 %
10.11.2016 16:32 5,0 C 92 % 1009,8 hPa 0,0 l/m 8,1 km/h (2 Bft) SW 232 0 min 0,000 mm 0,0 UV-I 0 W/m 3,8 C 3,5 C 11,3 km/h (2 Bft) 100,00 %
10.11.2016 16:34 5,0 C 92 % 1009,9 hPa 0,0 l/m 6,6 km/h (2 Bft) W-SW 238 0 min 0,000 mm 0,0 UV-I 0 W/m 3,8 C 4,8 C 9,7 km/h (2 Bft) 98,00 %
10.11.2016 16:36 5,0 C 92 % 1009,7 hPa 0,2 l/m 11,3 km/h (2 Bft) S-SW 213 0 min 0,000 mm 0,0 UV-I 0 W/m 3,8 C 1,2 C 22,5 km/h (4 Bft) 100,00 %
10.11.2016 16:39 4,9 C 92 % 1009,8 hPa 0,0 l/m 19,5 km/h (3 Bft) SW 218 0 min 0,000 mm 0,0 UV-I 0 W/m 3,7 C -3,1 C 32,2 km/h (5 Bft) 98,59 %
10.11.2016 16:40 5,0 C 92 % 1009,8 hPa 0,2 l/m 19,1 km/h (3 Bft) SW 232 0 min 0,000 mm 0,0 UV-I 0 W/m 3,8 C -2,8 C 25,7 km/h (4 Bft) 100,00 %
10.11.2016 16:42 5,0 C 92 % 1009,9 hPa 0,0 l/m 19,0 km/h (3 Bft) SW 236 0 min 0,000 mm 0,0 UV-I 0 W/m 3,8 C -2,8 C 27,4 km/h (4 Bft) 97,87 %
10.11.2016 16:44 5,0 C 92 % 1009,9 hPa 0,0 l/m 15,3 km/h (3 Bft) W-SW 257 0 min 0,000 mm 0,0 UV-I 0 W/m 3,8 C -1,1 C 20,9 km/h (4 Bft) 100,00 %
10.11.2016 16:46 5,0 C 92 % 1009,9 hPa 0,0 l/m 14,0 km/h (3 Bft) W 263 0 min 0,000 mm 0,0 UV-I 0 W/m 3,8 C -0,4 C 20,9 km/h (4 Bft) 100,00 %
10.11.2016 16:48 5,0 C 92 % 1009,9 hPa 0,0 l/m 13,4 km/h (3 Bft) W-SW 248 0 min 0,000 mm 0,0 UV-I 0 W/m 3,8 C -0,1 C 17,7 km/h (3 Bft) 100,00 %
10.11.2016 16:50 4,9 C 92 % 1009,9 hPa 0,0 l/m 9,1 km/h (2 Bft) W 271 0 min 0,000 mm 0,0 UV-I 0 W/m 3,7 C 2,6 C 16,1 km/h (3 Bft) 100,00 %
10.11.2016 16:52 4,9 C 92 % 1009,9 hPa 0,0 l/m 11,9 km/h (2 Bft) W 277 0 min 0,000 mm 0,0 UV-I 0 W/m 3,7 C 0,7 C 19,3 km/h (3 Bft) 100,00 %
10.11.2016 16:54 4,8 C 92 % 1009,9 hPa 0,0 l/m 6,6 km/h (2 Bft) W 264 0 min 0,000 mm 0,0 UV-I 0 W/m 3,6 C 4,6 C 12,9 km/h (3 Bft) 97,87 %
10.11.2016 16:56 4,8 C 93 % 1009,8 hPa 0,0 l/m 5,8 km/h (2 Bft) W 270 0 min 0,000 mm 0,0 UV-I 0 W/m 3,8 C 4,8 C 9,7 km/h (2 Bft) 97,87 %
10.11.2016 16:58 4,8 C 93 % 1009,8 hPa 0,0 l/m 6,0 km/h (2 Bft) W-SW 248 0 min 0,000 mm 0,0 UV-I 0 W/m 3,8 C 4,8 C 9,7 km/h (2 Bft) 100,00 %
10.11.2016 17:00 4,7 C 93 % 1009,8 hPa 0,0 l/m 7,0 km/h (2 Bft) SW 221 0 min 0,000 mm 0,0 UV-I 0 W/m 3,7 C 4,2 C 9,7 km/h (2 Bft) 100,00 %
10.11.2016 17:02 4,7 C 93 % 1009,8 hPa 0,0 l/m 7,2 km/h (2 Bft) SW 236 0 min 0,000 mm 0,0 UV-I 0 W/m 3,7 C 4,0 C 11,3 km/h (2 Bft) 100,00 %
10.11.2016 17:04 4,7 C 93 % 1009,8 hPa 0,0 l/m 5,3 km/h (1 Bft) S-SW 202 0 min 0,000 mm 0,0 UV-I 0 W/m 3,7 C 4,7 C 8,0 km/h (2 Bft) 95,74 %
10.11.2016 17:06 4,6 C 94 % 1009,8 hPa 0,0 l/m 7,4 km/h (2 Bft) SW 216 0 min 0,000 mm 0,0 UV-I 0 W/m 3,7 C 3,7 C 11,3 km/h (2 Bft) 100,00 %
10.11.2016 17:08 4,6 C 94 % 1009,8 hPa 0,0 l/m 6,6 km/h (2 Bft) S-SW 209 0 min 0,000 mm 0,0 UV-I 0 W/m 3,7 C 4,4 C 9,7 km/h (2 Bft) 100,00 %
10.11.2016 17:10 4,6 C 94 % 1009,8 hPa 0,0 l/m 6,5 km/h (2 Bft) SW 234 0 min 0,000 mm 0,0 UV-I 0 W/m 3,7 C 4,5 C 9,7 km/h (2 Bft) 100,00 %
10.11.2016 17:12 4,6 C 94 % 1009,8 hPa 0,0 l/m 7,2 km/h (2 Bft) W-SW 249 0 min 0,000 mm 0,0 UV-I 0 W/m 3,7 C 3,9 C 9,7 km/h (2 Bft) 97,87 %
10.11.2016 17:14 4,6 C 94 % 1009,9 hPa 0,0 l/m 6,3 km/h (2 Bft) W-SW 241 0 min 0,000 mm 0,0 UV-I 0 W/m 3,7 C 4,6 C 8,0 km/h (2 Bft) 95,74 %
10.11.2016 17:16 4,6 C 94 % 1009,9 hPa 0,0 l/m 6,8 km/h (2 Bft) W-SW 256 0 min 0,000 mm 0,0 UV-I 0 W/m 3,7 C 4,3 C 9,7 km/h (2 Bft) 100,00 %
10.11.2016 17:18 4,5 C 94 % 1010,0 hPa 0,0 l/m 6,5 km/h (2 Bft) W-SW 258 0 min 0,000 mm 0,0 UV-I 0 W/m 3,6 C 4,4 C 11,3 km/h (2 Bft) 97,87 %
10.11.2016 17:20 4,5 C 94 % 1010,0 hPa 0,0 l/m 5,9 km/h (2 Bft) SW 225 0 min 0,000 mm 0,0 UV-I 0 W/m 3,6 C 4,5 C 9,7 km/h (2 Bft) 98,00 %
10.11.2016 17:22 4,5 C 94 % 1010,1 hPa 0,2 l/m 6,6 km/h (2 Bft) W-SW 252 0 min 0,000 mm 0,0 UV-I 0 W/m 3,6 C 4,3 C 14,5 km/h (3 Bft) 100,00 %
10.11.2016 17:24 4,6 C 95 % 1010,3 hPa 0,0 l/m 12,2 km/h (2 Bft) W 259 0 min 0,000 mm 0,0 UV-I 0 W/m 3,9 C 0,2 C 16,1 km/h (3 Bft) 100,00 %
10.11.2016 17:26 4,6 C 95 % 1010,5 hPa 0,0 l/m 13,9 km/h (3 Bft) W 259 0 min 0,000 mm 0,0 UV-I 0 W/m 3,9 C -0,8 C 17,7 km/h (3 Bft) 97,87 %
10.11.2016 17:29 4,5 C 94 % 1010,3 hPa 0,4 l/m 10,4 km/h (2 Bft) W 271 0 min 0,000 mm 0,0 UV-I 0 W/m 3,6 C 1,2 C 20,9 km/h (4 Bft) 100,00 %
10.11.2016 17:30 4,5 C 94 % 1010,3 hPa 0,0 l/m 9,7 km/h (2 Bft) W-SW 247 0 min 0,000 mm 0,0 UV-I 0 W/m 3,6 C 1,7 C 14,5 km/h (3 Bft) 95,83 %
10.11.2016 17:32 4,4 C 94 % 1010,3 hPa 0,2 l/m 12,6 km/h (3 Bft) W-SW 255 0 min 0,000 mm 0,0 UV-I 0 W/m 3,5 C -0,3 C 17,7 km/h (3 Bft) 97,87 %
10.11.2016 17:34 4,4 C 94 % 1010,4 hPa 0,0 l/m 16,0 km/h (3 Bft) W 281 0 min 0,000 mm 0,0 UV-I 0 W/m 3,5 C -2,2 C 22,5 km/h (4 Bft) 97,87 %
10.11.2016 17:36 4,4 C 94 % 1010,4 hPa 0,0 l/m 12,6 km/h (3 Bft) W-SW 248 0 min 0,000 mm 0,0 UV-I 0 W/m 3,5 C -0,3 C 24,1 km/h (4 Bft) 97,87 %
10.11.2016 17:38 4,4 C 94 % 1010,3 hPa 0,2 l/m 6,8 km/h (2 Bft) W-SW 238 0 min 0,000 mm 0,0 UV-I 0 W/m 3,5 C 4,1 C 14,5 km/h (3 Bft) 100,00 %
10.11.2016 17:40 4,3 C 94 % 1010,2 hPa 0,0 l/m 5,4 km/h (1 Bft) W 259 0 min 0,000 mm 0,0 UV-I 0 W/m 3,4 C 4,3 C 11,3 km/h (2 Bft) 97,87 %
10.11.2016 17:42 4,3 C 94 % 1010,2 hPa 0,0 l/m 4,2 km/h (1 Bft) W-NW 288 0 min 0,000 mm 0,0 UV-I 0 W/m 3,4 C 4,3 C 6,4 km/h (2 Bft) 97,87 %
10.11.2016 17:44 4,3 C 94 % 1010,2 hPa 0,0 l/m 2,1 km/h (1 Bft) W-NW 298 0 min 0,000 mm 0,0 UV-I 0 W/m 3,4 C 4,3 C 4,8 km/h (1 Bft) 100,00 %
10.11.2016 17:46 4,3 C 95 % 1010,2 hPa 0,0 l/m 2,1 km/h (1 Bft) W-NW 283 0 min 0,000 mm 0,0 UV-I 0 W/m 3,6 C 4,3 C 4,8 km/h (1 Bft) 100,00 %
10.11.2016 17:48 4,3 C 95 % 1010,3 hPa 0,0 l/m 4,4 km/h (1 Bft) W-SW 250 0 min 0,000 mm 0,0 UV-I 0 W/m 3,6 C 4,3 C 8,0 km/h (2 Bft) 95,74 %
10.11.2016 17:50 4,2 C 95 % 1010,3 hPa 0,0 l/m 4,8 km/h (1 Bft) W 263 0 min 0,000 mm 0,0 UV-I 0 W/m 3,5 C 4,2 C 8,0 km/h (2 Bft) 97,87 %
10.11.2016 17:52 4,2 C 95 % 1010,3 hPa 0,0 l/m 6,8 km/h (2 Bft) W-SW 242 0 min 0,000 mm 0,0 UV-I 0 W/m 3,5 C 3,8 C 12,9 km/h (3 Bft) 97,87 %
10.11.2016 17:54 4,2 C 95 % 1010,4 hPa 0,0 l/m 4,9 km/h (1 Bft) W-SW 254 0 min 0,000 mm 0,0 UV-I 0 W/m 3,5 C 4,2 C 8,0 km/h (2 Bft) 94,00 %
10.11.2016 17:56 4,2 C 95 % 1010,4 hPa 0,0 l/m 7,4 km/h (2 Bft) W-SW 246 0 min 0,000 mm 0,0 UV-I 0 W/m 3,5 C 3,3 C 11,3 km/h (2 Bft) 97,87 %
10.11.2016 17:59 4,2 C 95 % 1010,4 hPa 0,0 l/m 6,2 km/h (2 Bft) W-SW 256 0 min 0,000 mm 0,0 UV-I 0 W/m 3,5 C 4,2 C 11,3 km/h (2 Bft) 98,59 %
10.11.2016 18:00 4,2 C 95 % 1010,5 hPa 0,0 l/m 5,5 km/h (1 Bft) W 269 0 min 0,000 mm 0,0 UV-I 0 W/m 3,5 C 4,2 C 6,4 km/h (2 Bft) 96,15 %
10.11.2016 18:02 4,2 C 95 % 1010,5 hPa 0,0 l/m 6,2 km/h (2 Bft) W 263 0 min 0,000 mm 0,0 UV-I 0 W/m 3,5 C 4,2 C 9,7 km/h (2 Bft) 97,44 %
10.11.2016 18:04 4,2 C 95 % 1010,6 hPa 0,0 l/m 6,6 km/h (2 Bft) W 265 0 min 0,000 mm 0,0 UV-I 0 W/m 3,5 C 4,0 C 9,7 km/h (2 Bft) 95,74 %
10.11.2016 18:06 4,2 C 95 % 1010,6 hPa 0,2 l/m 7,5 km/h (2 Bft) W 263 0 min 0,000 mm 0,0 UV-I 0 W/m 3,5 C 3,2 C 14,5 km/h (3 Bft) 98,00 %
10.11.2016 18:08 4,2 C 95 % 1010,7 hPa 0,0 l/m 6,1 km/h (2 Bft) W 270 0 min 0,000 mm 0,0 UV-I 0 W/m 3,5 C 4,2 C 9,7 km/h (2 Bft) 95,74 %
10.11.2016 18:10 4,1 C 95 % 1010,6 hPa 0,0 l/m 6,4 km/h (2 Bft) W-NW 291 0 min 0,000 mm 0,0 UV-I 0 W/m 3,4 C 4,1 C 12,9 km/h (3 Bft) 91,49 %
10.11.2016 18:12 4,1 C 95 % 1010,7 hPa 0,0 l/m 5,9 km/h (2 Bft) W 263 0 min 0,000 mm 0,0 UV-I 0 W/m 3,4 C 4,1 C 9,7 km/h (2 Bft) 97,87 %
10.11.2016 18:14 4,1 C 95 % 1010,5 hPa 0,0 l/m 4,5 km/h (1 Bft) SW 233 0 min 0,000 mm 0,0 UV-I 0 W/m 3,4 C 4,1 C 8,0 km/h (2 Bft) 97,87 %
10.11.2016 18:16 4,1 C 95 % 1010,6 hPa 0,2 l/m 8,2 km/h (2 Bft) W-NW 283 0 min 0,000 mm 0,0 UV-I 0 W/m 3,4 C 2,5 C 12,9 km/h (3 Bft) 97,87 %
10.11.2016 18:18 4,1 C 95 % 1010,6 hPa 0,2 l/m 7,2 km/h (2 Bft) W-SW 252 0 min 0,000 mm 0,0 UV-I 0 W/m 3,4 C 3,4 C 11,3 km/h (2 Bft) 97,87 %
10.11.2016 18:20 4,1 C 95 % 1010,6 hPa 0,0 l/m 8,6 km/h (2 Bft) W 260 0 min 0,000 mm 0,0 UV-I 0 W/m 3,4 C 2,2 C 16,1 km/h (3 Bft) 97,87 %
10.11.2016 18:22 4,1 C 95 % 1010,6 hPa 0,0 l/m 8,0 km/h (2 Bft) SW 220 0 min 0,000 mm 0,0 UV-I 0 W/m 3,4 C 2,7 C 12,9 km/h (3 Bft) 95,74 %
10.11.2016 18:24 4,1 C 95 % 1010,5 hPa 0,0 l/m 7,5 km/h (2 Bft) W 261 0 min 0,000 mm 0,0 UV-I 0 W/m 3,4 C 3,1 C 14,5 km/h (3 Bft) 97,92 %
10.11.2016 18:26 4,1 C 95 % 1010,4 hPa 0,0 l/m 8,2 km/h (2 Bft) W-SW 242 0 min 0,000 mm 0,0 UV-I 0 W/m 3,4 C 2,5 C 12,9 km/h (3 Bft) 97,87 %
10.11.2016 18:28 4,1 C 95 % 1010,4 hPa 0,0 l/m 7,6 km/h (2 Bft) W 265 0 min 0,000 mm 0,0 UV-I 0 W/m 3,4 C 3,0 C 12,9 km/h (3 Bft) 100,00 %
10.11.2016 18:30 4,1 C 95 % 1010,4 hPa 0,0 l/m 7,0 km/h (2 Bft) W 259 0 min 0,000 mm 0,0 UV-I 0 W/m 3,4 C 3,6 C 12,9 km/h (3 Bft) 100,00 %
10.11.2016 18:32 4,1 C 95 % 1010,4 hPa 0,0 l/m 6,8 km/h (2 Bft) SW 230 0 min 0,000 mm 0,0 UV-I 0 W/m 3,4 C 3,7 C 11,3 km/h (2 Bft) 97,87 %
10.11.2016 18:34 4,1 C 95 % 1010,4 hPa 0,0 l/m 5,5 km/h (1 Bft) SW 227 0 min 0,000 mm 0,0 UV-I 0 W/m 3,4 C 4,1 C 8,0 km/h (2 Bft) 97,87 %
10.11.2016 18:36 4,1 C 95 % 1010,5 hPa 0,0 l/m 3,9 km/h (1 Bft) SW 231 0 min 0,000 mm 0,0 UV-I 0 W/m 3,4 C 4,1 C 6,4 km/h (2 Bft) 97,14 %
10.11.2016 18:39 4,1 C 95 % 1010,5 hPa 0,0 l/m 5,9 km/h (2 Bft) S-SW 202 0 min 0,000 mm 0,0 UV-I 0 W/m 3,4 C 4,1 C 9,7 km/h (2 Bft) 97,59 %
10.11.2016 18:40 4,1 C 95 % 1010,5 hPa 0,0 l/m 5,3 km/h (1 Bft) S-SW 203 0 min 0,000 mm 0,0 UV-I 0 W/m 3,4 C 4,1 C 6,4 km/h (2 Bft) 100,00 %
10.11.2016 18:42 4,1 C 95 % 1010,5 hPa 0,0 l/m 5,5 km/h (1 Bft) S-SW 211 0 min 0,000 mm 0,0 UV-I 0 W/m 3,4 C 4,1 C 8,0 km/h (2 Bft) 100,00 %
10.11.2016 18:44 4,1 C 95 % 1010,5 hPa 0,0 l/m 5,7 km/h (1 Bft) S-SW 213 0 min 0,000 mm 0,0 UV-I 0 W/m 3,4 C 4,1 C 8,0 km/h (2 Bft) 100,00 %
10.11.2016 18:46 4,1 C 95 % 1010,5 hPa 0,0 l/m 5,0 km/h (1 Bft) SW 218 0 min 0,000 mm 0,0 UV-I 0 W/m 3,4 C 4,1 C 8,0 km/h (2 Bft) 100,00 %
10.11.2016 18:48 4,1 C 95 % 1010,6 hPa 0,0 l/m 5,9 km/h (2 Bft) SW 219 0 min 0,000 mm 0,0 UV-I 0 W/m 3,4 C 4,1 C 9,7 km/h (2 Bft) 100,00 %
10.11.2016 18:50 4,1 C 95 % 1010,6 hPa 0,0 l/m 6,3 km/h (2 Bft) SW 217 0 min 0,000 mm 0,0 UV-I 0 W/m 3,4 C 4,1 C 9,7 km/h (2 Bft) 100,00 %
10.11.2016 18:52 4,1 C 95 % 1010,6 hPa 0,0 l/m 4,9 km/h (1 Bft) SW 229 0 min 0,000 mm 0,0 UV-I 0 W/m 3,4 C 4,1 C 9,7 km/h (2 Bft) 100,00 %
10.11.2016 18:54 4,1 C 96 % 1010,6 hPa 0,0 l/m 2,9 km/h (1 Bft) SW 229 0 min 0,000 mm 0,0 UV-I 0 W/m 3,5 C 4,1 C 4,8 km/h (1 Bft) 95,74 %
10.11.2016 18:56 4,1 C 96 % 1010,6 hPa 0,0 l/m 3,7 km/h (1 Bft) SW 225 0 min 0,000 mm 0,0 UV-I 0 W/m 3,5 C 4,1 C 6,4 km/h (2 Bft) 100,00 %
10.11.2016 18:58 4,1 C 96 % 1010,5 hPa 0,0 l/m 3,6 km/h (1 Bft) S 188 0 min 0,000 mm 0,0 UV-I 0 W/m 3,5 C 4,1 C 6,4 km/h (2 Bft) 100,00 %
10.11.2016 19:00 4,1 C 96 % 1010,6 hPa 0,0 l/m 3,0 km/h (1 Bft) S 178 0 min 0,000 mm 0,0 UV-I 0 W/m 3,5 C 4,1 C 6,4 km/h (2 Bft) 100,00 %
10.11.2016 19:02 4,0 C 96 % 1010,5 hPa 0,0 l/m 3,4 km/h (1 Bft) S-SW 199 0 min 0,000 mm 0,0 UV-I 0 W/m 3,4 C 4,0 C 6,4 km/h (2 Bft) 100,00 %
10.11.2016 19:04 4,0 C 96 % 1010,6 hPa 0,0 l/m 4,9 km/h (1 Bft) S-SO 164 0 min 0,000 mm 0,0 UV-I 0 W/m 3,4 C 4,0 C 9,7 km/h (2 Bft) 100,00 %
10.11.2016 19:06 4,0 C 96 % 1010,6 hPa 0,0 l/m 6,5 km/h (2 Bft) S-SW 211 0 min 0,000 mm 0,0 UV-I 0 W/m 3,4 C 3,9 C 11,3 km/h (2 Bft) 100,00 %
10.11.2016 19:08 4,0 C 96 % 1010,5 hPa 0,0 l/m 8,3 km/h (2 Bft) S-SW 203 0 min 0,000 mm 0,0 UV-I 0 W/m 3,4 C 2,3 C 14,5 km/h (3 Bft) 100,00 %
10.11.2016 19:10 4,1 C 96 % 1010,5 hPa 0,0 l/m 8,1 km/h (2 Bft) S-SW 213 0 min 0,000 mm 0,0 UV-I 0 W/m 3,5 C 2,6 C 14,5 km/h (3 Bft) 97,87 %
10.11.2016 19:12 4,1 C 95 % 1010,5 hPa 0,2 l/m 9,8 km/h (2 Bft) S-SW 204 0 min 0,000 mm 0,0 UV-I 0 W/m 3,4 C 1,2 C 17,7 km/h (3 Bft) 100,00 %
10.11.2016 19:14 4,1 C 95 % 1010,4 hPa 0,0 l/m 7,2 km/h (2 Bft) S-SW 205 0 min 0,000 mm 0,0 UV-I 0 W/m 3,4 C 3,4 C 17,7 km/h (3 Bft) 95,16 %
10.11.2016 19:16 4,1 C 95 % 1010,4 hPa 0,0 l/m 7,3 km/h (2 Bft) S-SW 211 0 min 0,000 mm 0,0 UV-I 0 W/m 3,4 C 3,3 C 12,9 km/h (3 Bft) 95,74 %
10.11.2016 19:18 4,1 C 95 % 1010,5 hPa 0,0 l/m 7,2 km/h (2 Bft) SW 227 0 min 0,000 mm 0,0 UV-I 0 W/m 3,4 C 3,4 C 11,3 km/h (2 Bft) 95,74 %
10.11.2016 19:20 4,1 C 95 % 1010,6 hPa 0,0 l/m 7,2 km/h (2 Bft) S-SW 211 0 min 0,000 mm 0,0 UV-I 0 W/m 3,4 C 3,4 C 11,3 km/h (2 Bft) 100,00 %
10.11.2016 19:22 4,1 C 95 % 1010,6 hPa 0,0 l/m 7,3 km/h (2 Bft) SW 215 0 min 0,000 mm 0,0 UV-I 0 W/m 3,4 C 3,3 C 11,3 km/h (2 Bft) 98,00 %
10.11.2016 19:24 4,1 C 95 % 1010,6 hPa 0,0 l/m 7,8 km/h (2 Bft) SW 218 0 min 0,000 mm 0,0 UV-I 0 W/m 3,4 C 2,8 C 12,9 km/h (3 Bft) 97,87 %
10.11.2016 19:26 4,0 C 95 % 1010,6 hPa 0,0 l/m 6,9 km/h (2 Bft) S-SW 194 0 min 0,000 mm 0,0 UV-I 0 W/m 3,3 C 3,5 C 11,3 km/h (2 Bft) 97,87 %
10.11.2016 19:28 4,0 C 95 % 1010,6 hPa 0,0 l/m 5,8 km/h (2 Bft) S-SW 210 0 min 0,000 mm 0,0 UV-I 0 W/m 3,3 C 4,0 C 9,7 km/h (2 Bft) 97,87 %
10.11.2016 19:30 4,0 C 95 % 1010,5 hPa 0,0 l/m 6,9 km/h (2 Bft) SW 219 0 min 0,000 mm 0,0 UV-I 0 W/m 3,3 C 3,5 C 14,5 km/h (3 Bft) 100,00 %
10.11.2016 19:32 3,9 C 95 % 1010,6 hPa 0,0 l/m 7,4 km/h (2 Bft) S-SW 204 0 min 0,000 mm 0,0 UV-I 0 W/m 3,2 C 3,0 C 11,3 km/h (2 Bft) 96,00 %
10.11.2016 19:34 4,0 C 95 % 1010,7 hPa 0,0 l/m 8,0 km/h (2 Bft) SW 232 0 min 0,000 mm 0,0 UV-I 0 W/m 3,3 C 2,6 C 12,9 km/h (3 Bft) 97,87 %
10.11.2016 19:36 4,0 C 95 % 1010,7 hPa 0,0 l/m 8,9 km/h (2 Bft) SW 225 0 min 0,000 mm 0,0 UV-I 0 W/m 3,3 C 1,8 C 14,5 km/h (3 Bft) 100,00 %
10.11.2016 19:38 4,0 C 95 % 1010,7 hPa 0,0 l/m 6,2 km/h (2 Bft) SW 223 0 min 0,000 mm 0,0 UV-I 0 W/m 3,3 C 4,0 C 11,3 km/h (2 Bft) 97,87 %
10.11.2016 19:40 4,1 C 95 % 1010,7 hPa 0,0 l/m 7,6 km/h (2 Bft) W-SW 238 0 min 0,000 mm 0,0 UV-I 0 W/m 3,4 C 3,0 C 12,9 km/h (3 Bft) 100,00 %
10.11.2016 19:42 4,1 C 95 % 1010,7 hPa 0,0 l/m 7,2 km/h (2 Bft) S-SW 203 0 min 0,000 mm 0,0 UV-I 0 W/m 3,4 C 3,4 C 12,9 km/h (3 Bft) 95,74 %
10.11.2016 19:44 4,1 C 95 % 1010,7 hPa 0,0 l/m 9,5 km/h (2 Bft) S 190 0 min 0,000 mm 0,0 UV-I 0 W/m 3,4 C 1,4 C 14,5 km/h (3 Bft) 98,00 %
10.11.2016 19:46 4,1 C 95 % 1010,7 hPa 0,0 l/m 9,7 km/h (2 Bft) SW 219 0 min 0,000 mm 0,0 UV-I 0 W/m 3,4 C 1,3 C 16,1 km/h (3 Bft) 100,00 %
10.11.2016 19:48 4,2 C 95 % 1010,7 hPa 0,0 l/m 11,2 km/h (2 Bft) SW 220 0 min 0,000 mm 0,0 UV-I 0 W/m 3,5 C 0,4 C 17,7 km/h (3 Bft) 100,00 %
10.11.2016 19:50 4,2 C 95 % 1010,7 hPa 0,0 l/m 15,1 km/h (3 Bft) SW 227 0 min 0,000 mm 0,0 UV-I 0 W/m 3,5 C -1,9 C 27,4 km/h (4 Bft) 97,87 %
10.11.2016 19:52 4,3 C 95 % 1010,8 hPa 0,0 l/m 15,8 km/h (3 Bft) S 181 0 min 0,000 mm 0,0 UV-I 0 W/m 3,6 C -2,2 C 29,0 km/h (5 Bft) 97,87 %
10.11.2016 19:54 4,3 C 95 % 1010,7 hPa 0,0 l/m 18,4 km/h (3 Bft) SW 231 0 min 0,000 mm 0,0 UV-I 0 W/m 3,6 C -3,4 C 27,4 km/h (4 Bft) 100,00 %
10.11.2016 19:56 4,3 C 94 % 1010,7 hPa 0,0 l/m 17,9 km/h (3 Bft) SW 233 0 min 0,000 mm 0,0 UV-I 0 W/m 3,4 C -3,2 C 27,4 km/h (4 Bft) 94,74 %
10.11.2016 19:58 4,3 C 94 % 1010,7 hPa 0,0 l/m 14,4 km/h (3 Bft) S-SW 199 0 min 0,000 mm 0,0 UV-I 0 W/m 3,4 C -1,5 C 27,4 km/h (4 Bft) 98,00 %
10.11.2016 20:00 4,3 C 94 % 1010,6 hPa 0,0 l/m 15,2 km/h (3 Bft) SW 234 0 min 0,000 mm 0,0 UV-I 0 W/m 3,4 C -1,9 C 27,4 km/h (4 Bft) 97,87 %
10.11.2016 20:02 4,3 C 94 % 1010,6 hPa 0,0 l/m 14,4 km/h (3 Bft) S-SW 206 0 min 0,000 mm 0,0 UV-I 0 W/m 3,4 C -1,5 C 24,1 km/h (4 Bft) 98,00 %
10.11.2016 20:04 4,2 C 94 % 1010,6 hPa 0,0 l/m 14,4 km/h (3 Bft) S-SW 213 0 min 0,000 mm 0,0 UV-I 0 W/m 3,3 C -1,6 C 20,9 km/h (4 Bft) 97,22 %
10.11.2016 20:06 4,2 C 94 % 1010,7 hPa 0,0 l/m 13,1 km/h (3 Bft) W 263 0 min 0,000 mm 0,0 UV-I 0 W/m 3,3 C -0,8 C 20,9 km/h (4 Bft) 98,00 %
10.11.2016 20:08 4,1 C 93 % 1010,6 hPa 0,0 l/m 12,1 km/h (2 Bft) SW 223 0 min 0,000 mm 0,0 UV-I 0 W/m 3,1 C -0,3 C 24,1 km/h (4 Bft) 97,87 %
10.11.2016 20:10 4,1 C 93 % 1010,6 hPa 0,0 l/m 11,5 km/h (2 Bft) S-SW 209 0 min 0,000 mm 0,0 UV-I 0 W/m 3,1 C 0,0 C 20,9 km/h (4 Bft) 97,87 %
10.11.2016 20:12 4,1 C 93 % 1010,6 hPa 0,0 l/m 14,5 km/h (3 Bft) W 263 0 min 0,000 mm 0,0 UV-I 0 W/m 3,1 C -1,7 C 20,9 km/h (4 Bft) 95,74 %
10.11.2016 20:14 4,1 C 93 % 1010,7 hPa 0,0 l/m 12,0 km/h (2 Bft) W-SW 240 0 min 0,000 mm 0,0 UV-I 0 W/m 3,1 C -0,3 C 17,7 km/h (3 Bft) 97,87 %
10.11.2016 20:16 4,1 C 93 % 1010,7 hPa 0,0 l/m 14,6 km/h (3 Bft) S-SW 197 0 min 0,000 mm 0,0 UV-I 0 W/m 3,1 C -1,8 C 19,3 km/h (3 Bft) 97,87 %
10.11.2016 20:18 4,1 C 93 % 1010,7 hPa 0,0 l/m 11,4 km/h (2 Bft) S-SW 210 0 min 0,000 mm 0,0 UV-I 0 W/m 3,1 C 0,1 C 17,7 km/h (3 Bft) 97,87 %
10.11.2016 20:20 4,1 C 93 % 1010,8 hPa 0,0 l/m 10,0 km/h (2 Bft) SW 216 0 min 0,000 mm 0,0 UV-I 0 W/m 3,1 C 1,1 C 17,7 km/h (3 Bft) 97,87 %
10.11.2016 20:22 4,1 C 93 % 1010,8 hPa 0,0 l/m 11,5 km/h (2 Bft) SW 216 0 min 0,000 mm 0,0 UV-I 0 W/m 3,1 C 0,0 C 16,1 km/h (3 Bft) 95,74 %
10.11.2016 20:24 4,0 C 93 % 1010,8 hPa 0,0 l/m 10,6 km/h (2 Bft) S-SW 207 0 min 0,000 mm 0,0 UV-I 0 W/m 3,0 C 0,5 C 19,3 km/h (3 Bft) 95,74 %
10.11.2016 20:26 4,0 C 93 % 1010,8 hPa 0,0 l/m 9,3 km/h (2 Bft) S-SW 205 0 min 0,000 mm 0,0 UV-I 0 W/m 3,0 C 1,5 C 14,5 km/h (3 Bft) 98,00 %
10.11.2016 20:28 3,9 C 93 % 1010,9 hPa 0,0 l/m 10,6 km/h (2 Bft) S-SW 197 0 min 0,000 mm 0,0 UV-I 0 W/m 2,9 C 0,4 C 16,1 km/h (3 Bft) 93,62 %
10.11.2016 20:30 3,9 C 94 % 1010,9 hPa 0,0 l/m 13,1 km/h (3 Bft) S-SW 213 0 min 0,000 mm 0,0 UV-I 0 W/m 3,0 C -1,2 C 20,9 km/h (4 Bft) 98,00 %
10.11.2016 20:32 3,9 C 94 % 1010,9 hPa 0,0 l/m 10,5 km/h (2 Bft) S-SW 199 0 min 0,000 mm 0,0 UV-I 0 W/m 3,0 C 0,5 C 16,1 km/h (3 Bft) 97,87 %
10.11.2016 20:34 3,9 C 94 % 1011,0 hPa 0,0 l/m 12,5 km/h (3 Bft) S-SW 207 0 min 0,000 mm 0,0 UV-I 0 W/m 3,0 C -0,8 C 19,3 km/h (3 Bft) 97,87 %
10.11.2016 20:36 3,9 C 94 % 1011,0 hPa 0,0 l/m 9,9 km/h (2 Bft) SW 216 0 min 0,000 mm 0,0 UV-I 0 W/m 3,0 C 0,9 C 14,5 km/h (3 Bft) 100,00 %
10.11.2016 20:38 3,9 C 94 % 1011,0 hPa 0,0 l/m 9,3 km/h (2 Bft) S-SW 202 0 min 0,000 mm 0,0 UV-I 0 W/m 3,0 C 1,4 C 14,5 km/h (3 Bft) 100,00 %
10.11.2016 20:40 3,9 C 94 % 1011,0 hPa 0,0 l/m 5,4 km/h (1 Bft) S 169 0 min 0,000 mm 0,0 UV-I 0 W/m 3,0 C 3,9 C 11,3 km/h (2 Bft) 100,00 %
10.11.2016 20:42 3,8 C 94 % 1011,0 hPa 0,0 l/m 11,2 km/h (2 Bft) S-SW 208 0 min 0,000 mm 0,0 UV-I 0 W/m 2,9 C -0,1 C 17,7 km/h (3 Bft) 96,15 %
10.11.2016 20:44 3,8 C 94 % 1011,0 hPa 0,0 l/m 6,3 km/h (2 Bft) SW 221 0 min 0,000 mm 0,0 UV-I 0 W/m 2,9 C 3,8 C 11,3 km/h (2 Bft) 98,00 %
10.11.2016 20:46 3,8 C 94 % 1010,9 hPa 0,0 l/m 7,5 km/h (2 Bft) S-SW 195 0 min 0,000 mm 0,0 UV-I 0 W/m 2,9 C 2,8 C 14,5 km/h (3 Bft) 97,87 %
10.11.2016 20:48 3,8 C 94 % 1010,9 hPa 0,0 l/m 5,8 km/h (2 Bft) S 176 0 min 0,000 mm 0,0 UV-I 0 W/m 2,9 C 3,8 C 11,3 km/h (2 Bft) 100,00 %
10.11.2016 20:50 3,8 C 94 % 1010,9 hPa 0,0 l/m 4,6 km/h (1 Bft) S 169 0 min 0,000 mm 0,0 UV-I 0 W/m 2,9 C 3,8 C 8,0 km/h (2 Bft) 97,87 %
10.11.2016 20:52 3,8 C 94 % 1010,9 hPa 0,0 l/m 5,4 km/h (1 Bft) S-SW 194 0 min 0,000 mm 0,0 UV-I 0 W/m 2,9 C 3,8 C 9,7 km/h (2 Bft) 100,00 %
10.11.2016 20:54 3,7 C 94 % 1010,9 hPa 0,0 l/m 4,0 km/h (1 Bft) S 182 0 min 0,000 mm 0,0 UV-I 0 W/m 2,8 C 3,7 C 8,0 km/h (2 Bft) 100,00 %
10.11.2016 20:56 3,7 C 94 % 1011,0 hPa 0,0 l/m 4,6 km/h (1 Bft) S-SO 165 0 min 0,000 mm 0,0 UV-I 0 W/m 2,8 C 3,7 C 8,0 km/h (2 Bft) 97,87 %
10.11.2016 20:58 3,8 C 94 % 1011,0 hPa 0,0 l/m 6,3 km/h (2 Bft) S-SW 200 0 min 0,000 mm 0,0 UV-I 0 W/m 2,9 C 3,8 C 11,3 km/h (2 Bft) 97,87 %
10.11.2016 21:00 3,8 C 94 % 1011,0 hPa 0,0 l/m 4,6 km/h (1 Bft) S-SW 198 0 min 0,000 mm 0,0 UV-I 0 W/m 2,9 C 3,8 C 9,7 km/h (2 Bft) 100,00 %
10.11.2016 21:02 3,8 C 94 % 1011,0 hPa 0,0 l/m 4,4 km/h (1 Bft) S-SO 164 0 min 0,000 mm 0,0 UV-I 0 W/m 2,9 C 3,8 C 6,4 km/h (2 Bft) 100,00 %
10.11.2016 21:04 3,8 C 94 % 1011,1 hPa 0,0 l/m 3,4 km/h (1 Bft) S 188 0 min 0,000 mm 0,0 UV-I 0 W/m 2,9 C 3,8 C 6,4 km/h (2 Bft) 98,00 %
10.11.2016 21:06 3,8 C 94 % 1011,0 hPa 0,0 l/m 6,4 km/h (2 Bft) S 173 0 min 0,000 mm 0,0 UV-I 0 W/m 2,9 C 3,8 C 11,3 km/h (2 Bft) 100,00 %
10.11.2016 21:08 3,8 C 94 % 1011,0 hPa 0,0 l/m 4,4 km/h (1 Bft) S 169 0 min 0,000 mm 0,0 UV-I 0 W/m 2,9 C 3,8 C 11,3 km/h (2 Bft) 100,00 %
10.11.2016 21:10 3,8 C 94 % 1011,0 hPa 0,0 l/m 3,8 km/h (1 Bft) S 177 0 min 0,000 mm 0,0 UV-I 0 W/m 2,9 C 3,8 C 8,0 km/h (2 Bft) 100,00 %
10.11.2016 21:16 3,8 C 95 % 1011,1 hPa 0,0 l/m 2,1 km/h (1 Bft) S-SW 200 0 min 0,000 mm 0,0 UV-I 0 W/m 3,1 C 3,8 C 4,8 km/h (1 Bft) 99,33 %
10.11.2016 21:18 3,8 C 95 % 1011,0 hPa 0,0 l/m 0,6 km/h (0 Bft) S-SW 200 0 min 0,000 mm 0,0 UV-I 0 W/m 3,1 C 3,8 C 1,6 km/h (1 Bft) 97,87 %
10.11.2016 21:20 3,8 C 95 % 1011,0 hPa 0,0 l/m 0,5 km/h (0 Bft) S-SW 200 0 min 0,000 mm 0,0 UV-I 0 W/m 3,1 C 3,8 C 1,6 km/h (1 Bft) 100,00 %
10.11.2016 21:22 3,8 C 95 % 1011,0 hPa 0,0 l/m 1,4 km/h (1 Bft) S-SW 200 0 min 0,000 mm 0,0 UV-I 0 W/m 3,1 C 3,8 C 3,2 km/h (1 Bft) 100,00 %
10.11.2016 21:24 3,8 C 95 % 1010,9 hPa 0,0 l/m 0,2 km/h (0 Bft) S-SW 200 0 min 0,000 mm 0,0 UV-I 0 W/m 3,1 C 3,8 C 1,6 km/h (1 Bft) 100,00 %
10.11.2016 21:26 3,8 C 95 % 1010,9 hPa 0,0 l/m 1,0 km/h (0 Bft) S-SW 200 0 min 0,000 mm 0,0 UV-I 0 W/m 3,1 C 3,8 C 3,2 km/h (1 Bft) 98,00 %
10.11.2016 21:29 3,8 C 95 % 1010,9 hPa 0,0 l/m 1,7 km/h (1 Bft) S-SW 197 0 min 0,000 mm 0,0 UV-I 0 W/m 3,1 C 3,8 C 4,8 km/h (1 Bft) 98,59 %
10.11.2016 21:30 3,8 C 95 % 1010,9 hPa 0,0 l/m 0,4 km/h (0 Bft) S-SW 197 0 min 0,000 mm 0,0 UV-I 0 W/m 3,1 C 3,8 C 1,6 km/h (1 Bft) 100,00 %
10.11.2016 21:32 3,8 C 95 % 1010,9 hPa 0,0 l/m 0,9 km/h (0 Bft) S-SW 197 0 min 0,000 mm 0,0 UV-I 0 W/m 3,1 C 3,8 C 3,2 km/h (1 Bft) 100,00 %
10.11.2016 21:34 3,8 C 95 % 1010,9 hPa 0,0 l/m 1,2 km/h (1 Bft) S-SW 197 0 min 0,000 mm 0,0 UV-I 0 W/m 3,1 C 3,8 C 3,2 km/h (1 Bft) 94,34 %
10.11.2016 21:36 3,7 C 94 % 1010,9 hPa 0,0 l/m 1,4 km/h (1 Bft) S-SW 197 0 min 0,000 mm 0,0 UV-I 0 W/m 2,8 C 3,7 C 3,2 km/h (1 Bft) 97,87 %
10.11.2016 21:38 3,7 C 94 % 1010,9 hPa 0,0 l/m 1,0 km/h (0 Bft) S-SW 193 0 min 0,000 mm 0,0 UV-I 0 W/m 2,8 C 3,7 C 3,2 km/h (1 Bft) 100,00 %
10.11.2016 21:40 3,7 C 95 % 1010,9 hPa 0,0 l/m 3,3 km/h (1 Bft) S 173 0 min 0,000 mm 0,0 UV-I 0 W/m 3,0 C 3,7 C 6,4 km/h (2 Bft) 95,74 %
10.11.2016 21:42 3,7 C 95 % 1010,9 hPa 0,0 l/m 3,1 km/h (1 Bft) S-SO 164 0 min 0,000 mm 0,0 UV-I 0 W/m 3,0 C 3,7 C 6,4 km/h (2 Bft) 100,00 %
10.11.2016 21:44 3,7 C 95 % 1010,8 hPa 0,0 l/m 2,5 km/h (1 Bft) S 173 0 min 0,000 mm 0,0 UV-I 0 W/m 3,0 C 3,7 C 4,8 km/h (1 Bft) 100,00 %
10.11.2016 21:46 3,7 C 95 % 1010,9 hPa 0,0 l/m 2,8 km/h (1 Bft) S 169 0 min 0,000 mm 0,0 UV-I 0 W/m 3,0 C 3,7 C 6,4 km/h (2 Bft) 100,00 %
10.11.2016 21:48 3,7 C 95 % 1010,8 hPa 0,0 l/m 2,5 km/h (1 Bft) S 172 0 min 0,000 mm 0,0 UV-I 0 W/m 3,0 C 3,7 C 4,8 km/h (1 Bft) 97,14 %
10.11.2016 21:50 3,7 C 95 % 1010,8 hPa 0,0 l/m 1,7 km/h (1 Bft) S 177 0 min 0,000 mm 0,0 UV-I 0 W/m 3,0 C 3,7 C 4,8 km/h (1 Bft) 100,00 %
10.11.2016 21:52 3,7 C 95 % 1010,8 hPa 0,0 l/m 1,7 km/h (1 Bft) S 176 0 min 0,000 mm 0,0 UV-I 0 W/m 3,0 C 3,7 C 3,2 km/h (1 Bft) 100,00 %
10.11.2016 21:54 3,7 C 95 % 1010,8 hPa 0,0 l/m 1,6 km/h (1 Bft) S 176 0 min 0,000 mm 0,0 UV-I 0 W/m 3,0 C 3,7 C 3,2 km/h (1 Bft) 97,87 %
10.11.2016 21:56 3,7 C 95 % 1010,8 hPa 0,0 l/m 0,7 km/h (0 Bft) S 176 0 min 0,000 mm 0,0 UV-I 0 W/m 3,0 C 3,7 C 3,2 km/h (1 Bft) 97,87 %
10.11.2016 21:58 3,7 C 95 % 1010,8 hPa 0,0 l/m 1,4 km/h (1 Bft) S 176 0 min 0,000 mm 0,0 UV-I 0 W/m 3,0 C 3,7 C 4,8 km/h (1 Bft) 100,00 %
10.11.2016 22:00 3,7 C 95 % 1010,8 hPa 0,0 l/m 0,9 km/h (0 Bft) S 176 0 min 0,000 mm 0,0 UV-I 0 W/m 3,0 C 3,7 C 3,2 km/h (1 Bft) 100,00 %
10.11.2016 22:03 3,7 C 95 % 1010,8 hPa 0,0 l/m 0,7 km/h (0 Bft) S 176 0 min 0,000 mm 0,0 UV-I 0 W/m 3,0 C 3,7 C 1,6 km/h (1 Bft) 100,00 %
10.11.2016 22:04 3,7 C 95 % 1010,8 hPa 0,0 l/m 0,3 km/h (0 Bft) S 176 0 min 0,000 mm 0,0 UV-I 0 W/m 3,0 C 3,7 C 1,6 km/h (1 Bft) 91,30 %
10.11.2016 22:06 3,7 C 95 % 1010,7 hPa 0,0 l/m 0,2 km/h (0 Bft) S 176 0 min 0,000 mm 0,0 UV-I 0 W/m 3,0 C 3,7 C 1,6 km/h (1 Bft) 97,87 %
10.11.2016 22:09 3,7 C 95 % 1010,7 hPa 0,0 l/m 0,7 km/h (0 Bft) S 176 0 min 0,000 mm 0,0 UV-I 0 W/m 3,0 C 3,7 C 3,2 km/h (1 Bft) 92,96 %
10.11.2016 22:10 3,7 C 95 % 1010,8 hPa 0,0 l/m 0,5 km/h (0 Bft) S 176 0 min 0,000 mm 0,0 UV-I 0 W/m 3,0 C 3,7 C 1,6 km/h (1 Bft) 96,15 %
10.11.2016 22:12 3,7 C 95 % 1010,8 hPa 0,0 l/m 1,6 km/h (1 Bft) SW 223 0 min 0,000 mm 0,0 UV-I 0 W/m 3,0 C 3,7 C 3,2 km/h (1 Bft) 93,62 %
10.11.2016 22:14 3,7 C 95 % 1010,9 hPa 0,0 l/m 0,7 km/h (0 Bft) SW 223 0 min 0,000 mm 0,0 UV-I 0 W/m 3,0 C 3,7 C 1,6 km/h (1 Bft) 93,62 %
10.11.2016 22:16 3,6 C 95 % 1010,9 hPa 0,0 l/m 2,1 km/h (1 Bft) W 267 0 min 0,000 mm 0,0 UV-I 0 W/m 2,9 C 3,6 C 3,2 km/h (1 Bft) 95,74 %
10.11.2016 22:18 3,6 C 95 % 1010,9 hPa 0,2 l/m 1,3 km/h (1 Bft) W 267 0 min 0,000 mm 0,0 UV-I 0 W/m 2,9 C 3,6 C 3,2 km/h (1 Bft) 95,74 %
10.11.2016 22:20 3,6 C 95 % 1011,1 hPa 0,0 l/m 1,6 km/h (1 Bft) W-NW 284 0 min 0,000 mm 0,0 UV-I 0 W/m 2,9 C 3,6 C 4,8 km/h (1 Bft) 96,00 %
10.11.2016 22:22 3,5 C 96 % 1011,2 hPa 0,0 l/m 2,7 km/h (1 Bft) W 275 0 min 0,000 mm 0,0 UV-I 0 W/m 2,9 C 3,5 C 4,8 km/h (1 Bft) 97,87 %
10.11.2016 22:24 3,5 C 96 % 1011,2 hPa 0,2 l/m 3,4 km/h (1 Bft) S-SW 211 0 min 0,000 mm 0,0 UV-I 0 W/m 2,9 C 3,5 C 6,4 km/h (2 Bft) 97,87 %
10.11.2016 22:26 3,5 C 96 % 1011,2 hPa 0,2 l/m 4,6 km/h (1 Bft) W 279 0 min 0,000 mm 0,0 UV-I 0 W/m 2,9 C 3,5 C 14,5 km/h (3 Bft) 97,22 %
10.11.2016 22:29 3,5 C 96 % 1011,2 hPa 0,2 l/m 5,0 km/h (1 Bft) W-NW 303 0 min 0,000 mm 0,0 UV-I 0 W/m 2,9 C 3,5 C 12,9 km/h (3 Bft) 97,56 %
10.11.2016 22:30 3,5 C 96 % 1011,2 hPa 0,0 l/m 5,7 km/h (1 Bft) W-SW 243 0 min 0,000 mm 0,0 UV-I 0 W/m 2,9 C 3,5 C 9,7 km/h (2 Bft) 100,00 %
10.11.2016 22:32 3,6 C 96 % 1011,2 hPa 0,0 l/m 4,5 km/h (1 Bft) W 279 0 min 0,000 mm 0,0 UV-I 0 W/m 3,0 C 3,6 C 9,7 km/h (2 Bft) 95,74 %
10.11.2016 22:34 3,6 C 96 % 1011,2 hPa 0,0 l/m 3,0 km/h (1 Bft) W 271 0 min 0,000 mm 0,0 UV-I 0 W/m 3,0 C 3,6 C 6,4 km/h (2 Bft) 96,00 %
10.11.2016 22:36 3,6 C 96 % 1011,3 hPa 0,2 l/m 4,9 km/h (1 Bft) W 277 0 min 0,000 mm 0,0 UV-I 0 W/m 3,0 C 3,6 C 9,7 km/h (2 Bft) 97,87 %
10.11.2016 22:38 3,6 C 96 % 1011,2 hPa 0,0 l/m 6,0 km/h (2 Bft) W 272 0 min 0,000 mm 0,0 UV-I 0 W/m 3,0 C 3,6 C 11,3 km/h (2 Bft) 93,62 %
10.11.2016 22:40 3,6 C 96 % 1011,3 hPa 0,0 l/m 4,4 km/h (1 Bft) NW 322 0 min 0,000 mm 0,0 UV-I 0 W/m 3,0 C 3,6 C 6,4 km/h (2 Bft) 100,00 %
10.11.2016 22:42 3,7 C 96 % 1011,3 hPa 0,2 l/m 3,7 km/h (1 Bft) NW 304 0 min 0,000 mm 0,0 UV-I 0 W/m 3,1 C 3,7 C 6,4 km/h (2 Bft) 97,87 %
10.11.2016 22:44 3,7 C 96 % 1011,2 hPa 0,0 l/m 4,9 km/h (1 Bft) W 279 0 min 0,000 mm 0,0 UV-I 0 W/m 3,1 C 3,7 C 9,7 km/h (2 Bft) 100,00 %
10.11.2016 22:46 3,7 C 96 % 1011,1 hPa 0,2 l/m 2,1 km/h (1 Bft) W 279 0 min 0,000 mm 0,0 UV-I 0 W/m 3,1 C 3,7 C 3,2 km/h (1 Bft) 97,87 %
10.11.2016 22:48 3,7 C 96 % 1011,1 hPa 0,0 l/m 1,3 km/h (1 Bft) W 281 0 min 0,000 mm 0,0 UV-I 0 W/m 3,1 C 3,7 C 3,2 km/h (1 Bft) 98,00 %
10.11.2016 22:50 3,7 C 96 % 1011,1 hPa 0,0 l/m 1,6 km/h (1 Bft) W-NW 285 0 min 0,000 mm 0,0 UV-I 0 W/m 3,1 C 3,7 C 3,2 km/h (1 Bft) 100,00 %
10.11.2016 22:52 3,7 C 96 % 1011,1 hPa 0,0 l/m 0,8 km/h (0 Bft) W-NW 285 0 min 0,000 mm 0,0 UV-I 0 W/m 3,1 C 3,7 C 3,2 km/h (1 Bft) 95,74 %
10.11.2016 22:54 3,7 C 96 % 1011,0 hPa 0,0 l/m 0,7 km/h (0 Bft) W-NW 286 0 min 0,000 mm 0,0 UV-I 0 W/m 3,1 C 3,7 C 3,2 km/h (1 Bft) 100,00 %
10.11.2016 22:56 3,7 C 97 % 1011,0 hPa 0,0 l/m 1,5 km/h (1 Bft) W-NW 291 0 min 0,000 mm 0,0 UV-I 0 W/m 3,3 C 3,7 C 3,2 km/h (1 Bft) 97,87 %
10.11.2016 22:58 3,6 C 97 % 1011,0 hPa 0,0 l/m 1,7 km/h (1 Bft) W-NW 294 0 min 0,000 mm 0,0 UV-I 0 W/m 3,2 C 3,6 C 3,2 km/h (1 Bft) 100,00 %
10.11.2016 23:00 3,6 C 97 % 1011,0 hPa 0,0 l/m 0,1 km/h (0 Bft) W-NW 294 0 min 0,000 mm 0,0 UV-I 0 W/m 3,2 C 3,6 C 1,6 km/h (1 Bft) 95,74 %
10.11.2016 23:02 3,6 C 97 % 1011,0 hPa 0,0 l/m 0,1 km/h (0 Bft) W-NW 294 0 min 0,000 mm 0,0 UV-I 0 W/m 3,2 C 3,6 C 1,6 km/h (1 Bft) 100,00 %
10.11.2016 23:04 3,6 C 97 % 1011,0 hPa 0,0 l/m 0,4 km/h (0 Bft) W-NW 294 0 min 0,000 mm 0,0 UV-I 0 W/m 3,2 C 3,6 C 1,6 km/h (1 Bft) 100,00 %
10.11.2016 23:06 3,6 C 97 % 1011,0 hPa 0,0 l/m 0,0 km/h (0 Bft) W-NW 294 0 min 0,000 mm 0,0 UV-I 0 W/m 3,2 C 3,6 C 1,6 km/h (1 Bft) 100,00 %
10.11.2016 23:08 3,6 C 97 % 1011,0 hPa 0,0 l/m 0,1 km/h (0 Bft) W-NW 294 0 min 0,000 mm 0,0 UV-I 0 W/m 3,2 C 3,6 C 1,6 km/h (1 Bft) 100,00 %
10.11.2016 23:10 3,6 C 97 % 1011,0 hPa 0,0 l/m 0,1 km/h (0 Bft) W-NW 294 0 min 0,000 mm 0,0 UV-I 0 W/m 3,2 C 3,6 C 1,6 km/h (1 Bft) 100,00 %
10.11.2016 23:12 3,6 C 97 % 1011,0 hPa 0,0 l/m 0,6 km/h (0 Bft) W-NW 294 0 min 0,000 mm 0,0 UV-I 0 W/m 3,2 C 3,6 C 3,2 km/h (1 Bft) 100,00 %
10.11.2016 23:14 3,6 C 97 % 1011,0 hPa 0,0 l/m 1,8 km/h (1 Bft) W-NW 294 0 min 0,000 mm 0,0 UV-I 0 W/m 3,2 C 3,6 C 3,2 km/h (1 Bft) 100,00 %
10.11.2016 23:16 3,6 C 97 % 1011,0 hPa 0,0 l/m 0,9 km/h (0 Bft) W-NW 294 0 min 0,000 mm 0,0 UV-I 0 W/m 3,2 C 3,6 C 3,2 km/h (1 Bft) 100,00 %
10.11.2016 23:18 3,6 C 97 % 1011,0 hPa 0,0 l/m 0,0 km/h (0 Bft) W-NW 294 0 min 0,000 mm 0,0 UV-I 0 W/m 3,2 C 3,6 C 0,0 km/h (0 Bft) 100,00 %
10.11.2016 23:20 3,6 C 97 % 1011,0 hPa 0,0 l/m 0,7 km/h (0 Bft) W-NW 294 0 min 0,000 mm 0,0 UV-I 0 W/m 3,2 C 3,6 C 3,2 km/h (1 Bft) 100,00 %
10.11.2016 23:22 3,6 C 97 % 1011,0 hPa 0,0 l/m 0,0 km/h (0 Bft) W-NW 294 0 min 0,000 mm 0,0 UV-I 0 W/m 3,2 C 3,6 C 0,0 km/h (0 Bft) 98,00 %
10.11.2016 23:24 3,6 C 97 % 1011,1 hPa 0,0 l/m 0,0 km/h (0 Bft) W-NW 294 0 min 0,000 mm 0,0 UV-I 0 W/m 3,2 C 3,6 C 0,0 km/h (0 Bft) 97,87 %
10.11.2016 23:26 3,6 C 97 % 1011,1 hPa 0,0 l/m 0,0 km/h (0 Bft) W-NW 294 0 min 0,000 mm 0,0 UV-I 0 W/m 3,2 C 3,6 C 0,0 km/h (0 Bft) 97,87 %
10.11.2016 23:29 3,6 C 97 % 1011,2 hPa 0,0 l/m 0,8 km/h (0 Bft) W-NW 294 0 min 0,000 mm 0,0 UV-I 0 W/m 3,2 C 3,6 C 3,2 km/h (1 Bft) 98,65 %
10.11.2016 23:30 3,6 C 97 % 1011,2 hPa 0,0 l/m 0,5 km/h (0 Bft) W-NW 294 0 min 0,000 mm 0,0 UV-I 0 W/m 3,2 C 3,6 C 1,6 km/h (1 Bft) 96,15 %
10.11.2016 23:32 3,6 C 97 % 1011,2 hPa 0,0 l/m 0,0 km/h (0 Bft) W-NW 294 0 min 0,000 mm 0,0 UV-I 0 W/m 3,2 C 3,6 C 1,6 km/h (1 Bft) 100,00 %
10.11.2016 23:34 3,5 C 97 % 1011,2 hPa 0,0 l/m 0,1 km/h (0 Bft) W-NW 294 0 min 0,000 mm 0,0 UV-I 0 W/m 3,1 C 3,5 C 1,6 km/h (1 Bft) 97,37 %
10.11.2016 23:36 3,5 C 97 % 1011,2 hPa 0,0 l/m 0,6 km/h (0 Bft) W-NW 294 0 min 0,000 mm 0,0 UV-I 0 W/m 3,1 C 3,5 C 3,2 km/h (1 Bft) 98,00 %
10.11.2016 23:39 3,5 C 97 % 1011,2 hPa 0,0 l/m 0,3 km/h (0 Bft) W-NW 294 0 min 0,000 mm 0,0 UV-I 0 W/m 3,1 C 3,5 C 1,6 km/h (1 Bft) 100,00 %
10.11.2016 23:40 3,5 C 97 % 1011,2 hPa 0,0 l/m 0,0 km/h (0 Bft) W-NW 294 0 min 0,000 mm 0,0 UV-I 0 W/m 3,1 C 3,5 C 0,0 km/h (0 Bft) 95,83 %
10.11.2016 23:42 3,5 C 97 % 1011,2 hPa 0,0 l/m 0,0 km/h (0 Bft) W-NW 294 0 min 0,000 mm 0,0 UV-I 0 W/m 3,1 C 3,5 C 0,0 km/h (0 Bft) 97,87 %
10.11.2016 23:44 3,5 C 97 % 1011,1 hPa 0,0 l/m 0,0 km/h (0 Bft) W-NW 294 0 min 0,000 mm 0,0 UV-I 0 W/m 3,1 C 3,5 C 0,0 km/h (0 Bft) 100,00 %
10.11.2016 23:46 3,4 C 97 % 1011,1 hPa 0,0 l/m 0,0 km/h (0 Bft) W-NW 294 0 min 0,000 mm 0,0 UV-I 0 W/m 3,0 C 3,4 C 0,0 km/h (0 Bft) 100,00 %
10.11.2016 23:48 3,4 C 97 % 1011,2 hPa 0,0 l/m 0,0 km/h (0 Bft) W-NW 294 0 min 0,000 mm 0,0 UV-I 0 W/m 3,0 C 3,4 C 0,0 km/h (0 Bft) 100,00 %
10.11.2016 23:50 3,5 C 97 % 1011,1 hPa 0,0 l/m 1,4 km/h (1 Bft) W-NW 294 0 min 0,000 mm 0,0 UV-I 0 W/m 3,1 C 3,5 C 3,2 km/h (1 Bft) 100,00 %
10.11.2016 23:52 3,4 C 97 % 1011,1 hPa 0,0 l/m 2,8 km/h (1 Bft) N 349 0 min 0,000 mm 0,0 UV-I 0 W/m 3,0 C 3,4 C 4,8 km/h (1 Bft) 97,87 %
10.11.2016 23:54 3,4 C 97 % 1011,1 hPa 0,0 l/m 3,1 km/h (1 Bft) NO 44 0 min 0,000 mm 0,0 UV-I 0 W/m 3,0 C 3,4 C 4,8 km/h (1 Bft) 97,87 %
10.11.2016 23:56 3,4 C 97 % 1011,1 hPa 0,0 l/m 1,5 km/h (1 Bft) NO 44 0 min 0,000 mm 0,0 UV-I 0 W/m 3,0 C 3,4 C 3,2 km/h (1 Bft) 100,00 %
10.11.2016 23:58 3,4 C 97 % 1011,1 hPa 0,0 l/m 1,2 km/h (1 Bft) NO 44 0 min 0,000 mm 0,0 UV-I 0 W/m 3,0 C 3,4 C 1,6 km/h (1 Bft) 95,74 %
_ Min-Zeit 00:00 12:18 06:28 - 00:12 - - - - - - 00:00 13:26 00:12 10:12
Minimum _ 0,9 C 76 % 1005,9 hPa - 0,0 km/h (0 Bft) - - - - - - 0,3 C -6,7 C 0,0 km/h (0 Bft) 89,19 %
_ Max-Zeit 11:52 04:32 22:36 12:32 12:34 - - 09:44 12:00 11:46 11:50 11:20 15:50 12:30 00:06
Maximum _ 8,1 C 98 % 1011,3 hPa 0,4 l/m 31,3 km/h
W-SW (5 Bft)
- - 2 min 0,203 mm 1,1 UV-I 532 W/m 5,0 C 5,3 C 61,2 km/h
W (7 Bft)
100,00 %
Durchschnitt _ 3,8 C 93 % 1008,4 hPa #11,0 l/m 8,6 km/h (2 Bft) SW - #1:56 h #0,610 mm 0,8 UV-I 123 W/m 2,8 C 1,2 C 13,9 km/h (3 Bft) 98,39 %